Wetterdaten: Donnerstag, 29.10.2009
Datum Zeit Temp. Innen Temp. Aussen UV X Diff Temp. Feuchte Inne Feuchte Auss Sonnenschein Luftdruck Regen ab 0,1 Wind Sonnenschein Windben
29.10.2009 00:00 15,8 C 6,3 C 0,0 UV-I 0,0 C 58 % 92 % 0 % 1018,6 hPa 0,0 l/m 0,0 km/h (0 Bft) 0 min 0,0 km/h (0 Bft)
29.10.2009 00:02 15,8 C 6,3 C 0,0 UV-I 0,0 C 58 % 92 % 0 % 1018,6 hPa 0,0 l/m 0,0 km/h (0 Bft) 0 min 0,0 km/h (0 Bft)
29.10.2009 00:04 15,8 C 6,3 C 0,0 UV-I 0,0 C 58 % 92 % 0 % 1018,6 hPa 0,0 l/m 0,0 km/h (0 Bft) 0 min 0,0 km/h (0 Bft)
29.10.2009 00:06 15,8 C 6,1 C 0,0 UV-I 0,0 C 58 % 92 % 0 % 1018,6 hPa 0,0 l/m 0,0 km/h (0 Bft) 0 min 0,0 km/h (0 Bft)
29.10.2009 00:08 15,8 C 6,1 C 0,0 UV-I 0,0 C 58 % 92 % 0 % 1018,6 hPa 0,0 l/m 0,0 km/h (0 Bft) 0 min 0,0 km/h (0 Bft)
29.10.2009 00:10 15,8 C 6,1 C 0,0 UV-I 0,0 C 58 % 92 % 0 % 1018,6 hPa 0,0 l/m 0,0 km/h (0 Bft) 0 min 0,0 km/h (0 Bft)
29.10.2009 00:12 15,8 C 6,1 C 0,0 UV-I 0,0 C 58 % 92 % 0 % 1018,6 hPa 0,0 l/m 0,0 km/h (0 Bft) 0 min 0,0 km/h (0 Bft)
29.10.2009 00:14 15,8 C 6,1 C 0,0 UV-I 0,0 C 58 % 92 % 0 % 1018,6 hPa 0,0 l/m 0,0 km/h (0 Bft) 0 min 0,0 km/h (0 Bft)
29.10.2009 00:16 15,8 C 6,0 C 0,0 UV-I 0,0 C 58 % 92 % 0 % 1019,0 hPa 0,0 l/m 0,0 km/h (0 Bft) 0 min 0,0 km/h (0 Bft)
29.10.2009 00:18 15,8 C 6,0 C 0,0 UV-I 0,0 C 58 % 92 % 0 % 1019,0 hPa 0,0 l/m 0,0 km/h (0 Bft) 0 min 0,0 km/h (0 Bft)
29.10.2009 00:20 15,8 C 6,0 C 0,0 UV-I 0,0 C 58 % 92 % 0 % 1019,0 hPa 0,0 l/m 0,0 km/h (0 Bft) 0 min 0,0 km/h (0 Bft)
29.10.2009 00:22 15,8 C 6,0 C 0,0 UV-I 0,0 C 58 % 92 % 0 % 1019,0 hPa 0,0 l/m 0,0 km/h (0 Bft) 0 min 0,0 km/h (0 Bft)
29.10.2009 00:26 15,8 C 6,0 C 0,0 UV-I 0,0 C 58 % 92 % 0 % 1019,0 hPa 0,0 l/m 0,0 km/h (0 Bft) 0 min 0,0 km/h (0 Bft)
29.10.2009 00:28 15,8 C 6,0 C 0,0 UV-I 0,0 C 58 % 92 % 0 % 1019,0 hPa 0,0 l/m 0,0 km/h (0 Bft) 0 min 0,0 km/h (0 Bft)
29.10.2009 00:30 15,8 C 6,0 C 0,0 UV-I 0,0 C 58 % 92 % 0 % 1019,0 hPa 0,0 l/m 0,0 km/h (0 Bft) 0 min 0,0 km/h (0 Bft)
29.10.2009 00:32 15,8 C 6,0 C 0,0 UV-I 0,0 C 58 % 92 % 0 % 1019,0 hPa 0,0 l/m 0,0 km/h (0 Bft) 0 min 0,0 km/h (0 Bft)
29.10.2009 00:34 15,8 C 6,0 C 0,0 UV-I 0,0 C 58 % 92 % 0 % 1019,0 hPa 0,0 l/m 0,0 km/h (0 Bft) 0 min 0,0 km/h (0 Bft)
29.10.2009 00:36 15,6 C 6,0 C 0,0 UV-I 0,0 C 58 % 92 % 0 % 1018,8 hPa 0,0 l/m 0,0 km/h (0 Bft) 0 min 0,0 km/h (0 Bft)
29.10.2009 00:38 15,6 C 6,0 C 0,0 UV-I 0,0 C 58 % 92 % 0 % 1018,8 hPa 0,0 l/m 0,0 km/h (0 Bft) 0 min 0,0 km/h (0 Bft)
29.10.2009 00:40 15,6 C 6,0 C 0,0 UV-I 0,0 C 58 % 93 % 0 % 1018,8 hPa 0,0 l/m 0,0 km/h (0 Bft) 0 min 0,0 km/h (0 Bft)
29.10.2009 00:42 15,6 C 6,1 C 0,0 UV-I 0,0 C 58 % 93 % 0 % 1018,8 hPa 0,0 l/m 0,0 km/h (0 Bft) 0 min 0,0 km/h (0 Bft)
29.10.2009 00:44 15,6 C 6,3 C 0,0 UV-I 0,0 C 59 % 93 % 0 % 1018,8 hPa 0,0 l/m 0,0 km/h (0 Bft) 0 min 0,0 km/h (0 Bft)
29.10.2009 00:46 15,6 C 6,2 C 0,0 UV-I 0,3 C 59 % 93 % 0 % 1018,8 hPa 0,0 l/m 0,0 km/h (0 Bft) 0 min 0,0 km/h (0 Bft)
29.10.2009 00:48 15,6 C 6,2 C 0,0 UV-I 0,4 C 59 % 93 % 0 % 1018,8 hPa 0,0 l/m 0,0 km/h (0 Bft) 0 min 0,0 km/h (0 Bft)
29.10.2009 00:50 15,6 C 6,3 C 0,0 UV-I 0,4 C 59 % 93 % 0 % 1018,8 hPa 0,0 l/m 0,0 km/h (0 Bft) 0 min 0,0 km/h (0 Bft)
29.10.2009 00:52 15,6 C 6,3 C 0,0 UV-I 0,5 C 59 % 93 % 0 % 1018,8 hPa 0,0 l/m 0,0 km/h (0 Bft) 0 min 0,0 km/h (0 Bft)
29.10.2009 00:54 15,6 C 6,4 C 0,0 UV-I 0,6 C 59 % 93 % 0 % 1018,8 hPa 0,0 l/m 0,0 km/h (0 Bft) 0 min 0,0 km/h (0 Bft)
29.10.2009 00:56 15,6 C 6,4 C 0,0 UV-I 0,6 C 59 % 94 % 0 % 1018,8 hPa 0,0 l/m 0,0 km/h (0 Bft) 0 min 0,0 km/h (0 Bft)
29.10.2009 00:58 15,6 C 6,4 C 0,0 UV-I 0,8 C 59 % 94 % 0 % 1018,8 hPa 0,0 l/m 0,0 km/h (0 Bft) 0 min 0,0 km/h (0 Bft)
29.10.2009 01:00 15,6 C 6,5 C 0,0 UV-I 0,8 C 59 % 94 % 0 % 1018,8 hPa 0,0 l/m 0,0 km/h (0 Bft) 0 min 0,0 km/h (0 Bft)
29.10.2009 01:02 15,6 C 6,5 C 0,0 UV-I 0,8 C 60 % 94 % 0 % 1018,8 hPa 0,0 l/m 0,0 km/h (0 Bft) 0 min 0,0 km/h (0 Bft)
29.10.2009 01:04 15,6 C 6,6 C 0,0 UV-I 0,8 C 60 % 94 % 0 % 1018,8 hPa 0,0 l/m 0,0 km/h (0 Bft) 0 min 0,0 km/h (0 Bft)
29.10.2009 01:06 15,6 C 6,6 C 0,0 UV-I 0,9 C 60 % 94 % 0 % 1018,8 hPa 0,0 l/m 0,0 km/h (0 Bft) 0 min 0,0 km/h (0 Bft)
29.10.2009 01:10 15,6 C 6,7 C 0,0 UV-I 0,9 C 60 % 94 % 0 % 1018,8 hPa 0,0 l/m 0,0 km/h (0 Bft) 0 min 0,0 km/h (0 Bft)
29.10.2009 01:12 15,6 C 6,7 C 0,0 UV-I 0,9 C 60 % 94 % 0 % 1018,8 hPa 0,0 l/m 0,0 km/h (0 Bft) 0 min 0,0 km/h (0 Bft)
29.10.2009 01:14 15,8 C 6,8 C 0,0 UV-I 0,9 C 60 % 94 % 0 % 1018,8 hPa 0,0 l/m 0,0 km/h (0 Bft) 0 min 0,0 km/h (0 Bft)
29.10.2009 01:16 15,6 C 6,8 C 0,0 UV-I 1,0 C 60 % 94 % 0 % 1019,1 hPa 0,0 l/m 0,0 km/h (0 Bft) 0 min 0,0 km/h (0 Bft)
29.10.2009 01:18 15,8 C 6,9 C 0,0 UV-I 1,0 C 60 % 94 % 0 % 1019,1 hPa 0,0 l/m 0,0 km/h (0 Bft) 0 min 0,0 km/h (0 Bft)
29.10.2009 01:20 15,8 C 6,9 C 0,0 UV-I 1,0 C 60 % 94 % 0 % 1019,1 hPa 0,0 l/m 0,0 km/h (0 Bft) 0 min 0,0 km/h (0 Bft)
29.10.2009 01:22 15,8 C 7,1 C 0,0 UV-I 0,8 C 60 % 94 % 0 % 1019,1 hPa 0,0 l/m 0,0 km/h (0 Bft) 0 min 0,0 km/h (0 Bft)
29.10.2009 01:24 15,8 C 7,1 C 0,0 UV-I 0,9 C 60 % 94 % 0 % 1019,1 hPa 0,0 l/m 0,0 km/h (0 Bft) 0 min 0,0 km/h (0 Bft)
29.10.2009 01:26 15,8 C 7,2 C 0,0 UV-I 0,8 C 60 % 94 % 0 % 1019,1 hPa 0,0 l/m 0,0 km/h (0 Bft) 0 min 0,0 km/h (0 Bft)
29.10.2009 01:28 15,8 C 7,2 C 0,0 UV-I 0,9 C 60 % 95 % 0 % 1019,1 hPa 0,0 l/m 0,0 km/h (0 Bft) 0 min 0,0 km/h (0 Bft)
29.10.2009 01:30 15,8 C 7,2 C 0,0 UV-I 1,0 C 61 % 95 % 0 % 1019,1 hPa 0,0 l/m 0,0 km/h (0 Bft) 0 min 0,0 km/h (0 Bft)
29.10.2009 01:34 15,8 C 7,5 C 0,0 UV-I 0,7 C 61 % 95 % 0 % 1019,1 hPa 0,0 l/m 0,0 km/h (0 Bft) 0 min 2,4 km/h (1 Bft)
29.10.2009 01:36 15,8 C 7,5 C 0,0 UV-I 0,7 C 61 % 95 % 0 % 1019,4 hPa 0,0 l/m 0,0 km/h (0 Bft) 0 min 0,0 km/h (0 Bft)
29.10.2009 01:38 15,8 C 7,5 C 0,0 UV-I 0,8 C 61 % 95 % 0 % 1019,4 hPa 0,0 l/m 0,0 km/h (0 Bft) 0 min 0,0 km/h (0 Bft)
29.10.2009 01:40 15,8 C 7,6 C 0,0 UV-I 0,7 C 61 % 95 % 0 % 1019,4 hPa 0,0 l/m 0,0 km/h (0 Bft) 0 min 0,0 km/h (0 Bft)
29.10.2009 01:42 15,8 C 7,7 C 0,0 UV-I 0,7 C 61 % 95 % 0 % 1019,4 hPa 0,0 l/m 0,0 km/h (0 Bft) 0 min 0,0 km/h (0 Bft)
29.10.2009 01:44 15,8 C 7,6 C 0,0 UV-I 0,8 C 61 % 95 % 0 % 1019,4 hPa 0,0 l/m 0,0 km/h (0 Bft) 0 min 0,0 km/h (0 Bft)
29.10.2009 01:46 15,8 C 7,7 C 0,0 UV-I 0,7 C 61 % 95 % 0 % 1019,4 hPa 0,0 l/m 0,0 km/h (0 Bft) 0 min 0,0 km/h (0 Bft)
29.10.2009 01:48 15,8 C 7,8 C 0,0 UV-I 0,6 C 61 % 95 % 0 % 1019,4 hPa 0,0 l/m 0,0 km/h (0 Bft) 0 min 0,0 km/h (0 Bft)
29.10.2009 01:50 15,8 C 7,9 C 0,0 UV-I 0,5 C 61 % 95 % 0 % 1019,4 hPa 0,0 l/m 0,0 km/h (0 Bft) 0 min 0,0 km/h (0 Bft)
29.10.2009 01:52 15,8 C 7,9 C 0,0 UV-I 0,6 C 61 % 95 % 0 % 1019,4 hPa 0,0 l/m 0,0 km/h (0 Bft) 0 min 0,0 km/h (0 Bft)
29.10.2009 01:54 15,8 C 7,9 C 0,0 UV-I 0,6 C 61 % 95 % 0 % 1019,4 hPa 0,0 l/m 0,0 km/h (0 Bft) 0 min 0,0 km/h (0 Bft)
29.10.2009 01:56 15,9 C 8,0 C 0,0 UV-I 0,6 C 61 % 95 % 0 % 1019,4 hPa 0,0 l/m 0,0 km/h (0 Bft) 0 min 0,0 km/h (0 Bft)
29.10.2009 01:58 15,9 C 8,0 C 0,0 UV-I 0,6 C 61 % 95 % 0 % 1019,4 hPa 0,0 l/m 0,0 km/h (0 Bft) 0 min 0,0 km/h (0 Bft)
29.10.2009 02:00 15,9 C 8,0 C 0,0 UV-I 0,7 C 61 % 95 % 0 % 1019,4 hPa 0,0 l/m 0,0 km/h (0 Bft) 0 min 0,0 km/h (0 Bft)
29.10.2009 02:02 15,9 C 8,1 C 0,0 UV-I 0,6 C 61 % 95 % 0 % 1019,4 hPa 0,0 l/m 0,0 km/h (0 Bft) 0 min 0,0 km/h (0 Bft)
29.10.2009 02:04 15,9 C 8,1 C 0,0 UV-I 0,6 C 61 % 95 % 0 % 1019,4 hPa 0,0 l/m 0,0 km/h (0 Bft) 0 min 0,0 km/h (0 Bft)
29.10.2009 02:06 15,9 C 8,2 C 0,0 UV-I 0,5 C 61 % 95 % 0 % 1019,4 hPa 0,0 l/m 0,0 km/h (0 Bft) 0 min 0,0 km/h (0 Bft)
29.10.2009 02:08 15,9 C 8,3 C 0,0 UV-I 0,4 C 61 % 95 % 0 % 1019,4 hPa 0,0 l/m 0,0 km/h (0 Bft) 0 min 0,0 km/h (0 Bft)
29.10.2009 02:10 15,9 C 8,2 C 0,0 UV-I 0,5 C 61 % 95 % 0 % 1019,4 hPa 0,0 l/m 0,0 km/h (0 Bft) 0 min 0,0 km/h (0 Bft)
29.10.2009 02:12 15,9 C 8,3 C 0,0 UV-I 0,4 C 61 % 95 % 0 % 1019,4 hPa 0,0 l/m 0,0 km/h (0 Bft) 0 min 0,0 km/h (0 Bft)
29.10.2009 02:14 15,8 C 8,3 C 0,0 UV-I 0,5 C 61 % 95 % 0 % 1019,4 hPa 0,0 l/m 0,0 km/h (0 Bft) 0 min 0,0 km/h (0 Bft)
29.10.2009 02:16 15,8 C 8,4 C 0,0 UV-I 0,4 C 61 % 95 % 0 % 1019,6 hPa 0,0 l/m 0,0 km/h (0 Bft) 0 min 0,0 km/h (0 Bft)
29.10.2009 02:18 15,8 C 8,4 C 0,0 UV-I 0,4 C 61 % 95 % 0 % 1019,6 hPa 0,0 l/m 0,0 km/h (0 Bft) 0 min 0,0 km/h (0 Bft)
29.10.2009 02:20 16,0 C 8,4 C 0,0 UV-I 0,4 C 61 % 95 % 0 % 1019,6 hPa 0,0 l/m 0,0 km/h (0 Bft) 0 min 2,6 km/h (1 Bft)
29.10.2009 02:22 16,0 C 8,4 C 0,0 UV-I 0,5 C 61 % 95 % 0 % 1019,6 hPa 0,0 l/m 0,0 km/h (0 Bft) 0 min 0,0 km/h (0 Bft)
29.10.2009 02:24 16,0 C 8,5 C 0,0 UV-I 0,4 C 61 % 95 % 0 % 1019,6 hPa 0,0 l/m 0,0 km/h (0 Bft) 0 min 0,0 km/h (0 Bft)
29.10.2009 02:26 16,0 C 8,5 C 0,0 UV-I 0,4 C 61 % 95 % 0 % 1019,6 hPa 0,0 l/m 0,0 km/h (0 Bft) 0 min 0,0 km/h (0 Bft)
29.10.2009 02:28 16,0 C 8,6 C 0,0 UV-I 0,3 C 61 % 95 % 0 % 1019,6 hPa 0,0 l/m 0,0 km/h (0 Bft) 0 min 0,0 km/h (0 Bft)
29.10.2009 02:30 16,0 C 8,7 C 0,0 UV-I 0,3 C 62 % 95 % 0 % 1019,6 hPa 0,0 l/m 0,0 km/h (0 Bft) 0 min 0,0 km/h (0 Bft)
29.10.2009 02:32 16,0 C 8,7 C 0,0 UV-I 0,3 C 61 % 95 % 0 % 1019,6 hPa 0,0 l/m 0,0 km/h (0 Bft) 0 min 0,0 km/h (0 Bft)
29.10.2009 02:34 16,0 C 8,7 C 0,0 UV-I 0,3 C 62 % 95 % 0 % 1019,6 hPa 0,0 l/m 0,0 km/h (0 Bft) 0 min 0,0 km/h (0 Bft)
29.10.2009 02:36 15,9 C 8,7 C 0,0 UV-I 0,3 C 61 % 95 % 0 % 1019,5 hPa 0,0 l/m 0,0 km/h (0 Bft) 0 min 0,0 km/h (0 Bft)
29.10.2009 02:38 16,0 C 8,7 C 0,0 UV-I 0,3 C 62 % 95 % 0 % 1019,5 hPa 0,0 l/m 0,0 km/h (0 Bft) 0 min 0,0 km/h (0 Bft)
29.10.2009 02:40 15,9 C 8,8 C 0,0 UV-I 0,2 C 62 % 95 % 0 % 1019,5 hPa 0,0 l/m 0,0 km/h (0 Bft) 0 min 0,0 km/h (0 Bft)
29.10.2009 02:42 15,9 C 8,8 C 0,0 UV-I 0,2 C 62 % 95 % 0 % 1019,5 hPa 0,0 l/m 0,0 km/h (0 Bft) 0 min 0,0 km/h (0 Bft)
29.10.2009 02:44 15,9 C 8,9 C 0,0 UV-I 0,2 C 62 % 95 % 0 % 1019,5 hPa 0,0 l/m 0,0 km/h (0 Bft) 0 min 0,0 km/h (0 Bft)
29.10.2009 02:46 15,9 C 8,9 C 0,0 UV-I 0,2 C 62 % 95 % 0 % 1019,5 hPa 0,0 l/m 0,0 km/h (0 Bft) 0 min 0,0 km/h (0 Bft)
29.10.2009 02:48 15,9 C 8,8 C 0,0 UV-I 0,3 C 62 % 95 % 0 % 1019,5 hPa 0,0 l/m 0,0 km/h (0 Bft) 0 min 0,0 km/h (0 Bft)
29.10.2009 02:50 16,1 C 8,8 C 0,0 UV-I 0,3 C 62 % 95 % 0 % 1019,5 hPa 0,0 l/m 0,0 km/h (0 Bft) 0 min 0,0 km/h (0 Bft)
29.10.2009 02:52 15,9 C 8,9 C 0,0 UV-I 0,2 C 62 % 95 % 0 % 1019,5 hPa 0,0 l/m 0,0 km/h (0 Bft) 0 min 0,0 km/h (0 Bft)
29.10.2009 02:54 16,1 C 8,9 C 0,0 UV-I 0,2 C 62 % 95 % 0 % 1019,5 hPa 0,0 l/m 0,0 km/h (0 Bft) 0 min 0,0 km/h (0 Bft)
29.10.2009 02:56 16,1 C 8,9 C 0,0 UV-I 0,2 C 62 % 95 % 0 % 1019,7 hPa 0,0 l/m 0,0 km/h (0 Bft) 0 min 0,0 km/h (0 Bft)
29.10.2009 02:58 16,1 C 8,9 C 0,0 UV-I 0,2 C 62 % 95 % 0 % 1019,7 hPa 0,0 l/m 0,0 km/h (0 Bft) 0 min 0,0 km/h (0 Bft)
29.10.2009 03:00 16,1 C 8,9 C 0,0 UV-I 0,3 C 62 % 95 % 0 % 1019,7 hPa 0,0 l/m 0,0 km/h (0 Bft) 0 min 0,0 km/h (0 Bft)
29.10.2009 03:02 16,1 C 9,1 C 0,0 UV-I 0,1 C 62 % 95 % 0 % 1019,7 hPa 0,0 l/m 0,0 km/h (0 Bft) 0 min 0,0 km/h (0 Bft)
29.10.2009 03:04 16,1 C 9,1 C 0,0 UV-I 0,1 C 62 % 95 % 0 % 1019,7 hPa 0,0 l/m 0,0 km/h (0 Bft) 0 min 0,0 km/h (0 Bft)
29.10.2009 03:06 16,1 C 9,1 C 0,0 UV-I 0,1 C 62 % 95 % 0 % 1019,7 hPa 0,0 l/m 0,0 km/h (0 Bft) 0 min 0,0 km/h (0 Bft)
29.10.2009 03:08 16,1 C 9,0 C 0,0 UV-I 0,2 C 62 % 95 % 0 % 1019,7 hPa 0,0 l/m 0,0 km/h (0 Bft) 0 min 0,0 km/h (0 Bft)
29.10.2009 03:10 16,1 C 9,0 C 0,0 UV-I 0,2 C 62 % 95 % 0 % 1019,7 hPa 0,0 l/m 0,0 km/h (0 Bft) 0 min 0,0 km/h (0 Bft)
29.10.2009 03:12 16,1 C 9,1 C 0,0 UV-I 0,1 C 62 % 95 % 0 % 1019,7 hPa 0,0 l/m 0,0 km/h (0 Bft) 0 min 0,0 km/h (0 Bft)
29.10.2009 03:14 16,1 C 9,1 C 0,0 UV-I 0,1 C 62 % 95 % 0 % 1019,7 hPa 0,0 l/m 0,0 km/h (0 Bft) 0 min 0,0 km/h (0 Bft)
29.10.2009 03:18 16,1 C 9,1 C 0,0 UV-I 0,1 C 62 % 95 % 0 % 1019,7 hPa 0,0 l/m 0,0 km/h (0 Bft) 0 min 0,0 km/h (0 Bft)
29.10.2009 03:20 16,2 C 9,2 C 0,0 UV-I 0,0 C 62 % 95 % 0 % 1019,7 hPa 0,0 l/m 0,0 km/h (0 Bft) 0 min 0,0 km/h (0 Bft)
29.10.2009 03:22 16,2 C 9,2 C 0,0 UV-I 0,0 C 62 % 95 % 0 % 1019,7 hPa 0,0 l/m 0,0 km/h (0 Bft) 0 min 0,0 km/h (0 Bft)
29.10.2009 03:24 16,2 C 9,2 C 0,0 UV-I 0,1 C 62 % 95 % 0 % 1019,7 hPa 0,0 l/m 0,0 km/h (0 Bft) 0 min 0,0 km/h (0 Bft)
29.10.2009 03:26 16,2 C 9,3 C 0,0 UV-I 0,0 C 62 % 95 % 0 % 1019,7 hPa 0,0 l/m 0,0 km/h (0 Bft) 0 min 0,0 km/h (0 Bft)
29.10.2009 03:28 16,2 C 9,2 C 0,0 UV-I 0,1 C 62 % 95 % 0 % 1019,7 hPa 0,0 l/m 0,0 km/h (0 Bft) 0 min 0,0 km/h (0 Bft)
29.10.2009 03:30 16,2 C 9,2 C 0,0 UV-I 0,1 C 62 % 95 % 0 % 1019,7 hPa 0,0 l/m 0,0 km/h (0 Bft) 0 min 0,0 km/h (0 Bft)
29.10.2009 03:32 16,2 C 9,2 C 0,0 UV-I 0,1 C 62 % 95 % 0 % 1019,7 hPa 0,0 l/m 0,0 km/h (0 Bft) 0 min 0,0 km/h (0 Bft)
29.10.2009 03:36 16,2 C 9,3 C 0,0 UV-I 0,1 C 62 % 95 % 0 % 1020,1 hPa 0,0 l/m 0,0 km/h (0 Bft) 0 min 0,0 km/h (0 Bft)
29.10.2009 03:40 16,2 C 9,3 C 0,0 UV-I 0,1 C 62 % 95 % 0 % 1020,1 hPa 0,0 l/m 0,0 km/h (0 Bft) 0 min 0,0 km/h (0 Bft)
29.10.2009 03:42 16,2 C 9,3 C 0,0 UV-I 0,1 C 62 % 95 % 0 % 1020,1 hPa 0,0 l/m 0,0 km/h (0 Bft) 0 min 0,0 km/h (0 Bft)
29.10.2009 03:44 16,2 C 9,3 C 0,0 UV-I 0,1 C 62 % 95 % 0 % 1020,1 hPa 0,0 l/m 0,0 km/h (0 Bft) 0 min 0,0 km/h (0 Bft)
29.10.2009 03:46 16,2 C 9,4 C 0,0 UV-I 0,0 C 62 % 95 % 0 % 1020,1 hPa 0,0 l/m 0,0 km/h (0 Bft) 0 min 0,0 km/h (0 Bft)
29.10.2009 03:48 16,2 C 9,5 C 0,0 UV-I 0,0 C 62 % 95 % 0 % 1020,1 hPa 0,0 l/m 0,0 km/h (0 Bft) 0 min 0,0 km/h (0 Bft)
29.10.2009 03:50 16,2 C 9,5 C 0,0 UV-I 0,0 C 62 % 95 % 0 % 1020,1 hPa 0,0 l/m 0,0 km/h (0 Bft) 0 min 0,0 km/h (0 Bft)
29.10.2009 03:52 16,2 C 9,5 C 0,0 UV-I 0,0 C 62 % 95 % 0 % 1020,1 hPa 0,0 l/m 0,0 km/h (0 Bft) 0 min 0,0 km/h (0 Bft)
29.10.2009 03:54 16,2 C 9,5 C 0,0 UV-I 0,0 C 62 % 95 % 0 % 1020,1 hPa 0,0 l/m 0,0 km/h (0 Bft) 0 min 0,0 km/h (0 Bft)
29.10.2009 03:56 16,2 C 9,4 C 0,0 UV-I 0,1 C 62 % 95 % 0 % 1019,9 hPa 0,0 l/m 0,0 km/h (0 Bft) 0 min 0,0 km/h (0 Bft)
29.10.2009 04:00 16,2 C 9,5 C 0,0 UV-I 0,0 C 62 % 95 % 0 % 1019,9 hPa 0,0 l/m 0,0 km/h (0 Bft) 0 min 0,0 km/h (0 Bft)
29.10.2009 04:02 16,2 C 9,5 C 0,0 UV-I 0,0 C 62 % 95 % 0 % 1019,9 hPa 0,0 l/m 0,0 km/h (0 Bft) 0 min 0,0 km/h (0 Bft)
29.10.2009 04:04 16,2 C 9,5 C 0,0 UV-I 0,0 C 63 % 95 % 0 % 1019,9 hPa 0,0 l/m 0,0 km/h (0 Bft) 0 min 0,0 km/h (0 Bft)
29.10.2009 04:06 16,2 C 9,5 C 0,0 UV-I 0,0 C 63 % 95 % 0 % 1019,9 hPa 0,0 l/m 0,0 km/h (0 Bft) 0 min 0,0 km/h (0 Bft)
29.10.2009 04:08 16,3 C 9,5 C 0,0 UV-I 0,0 C 63 % 95 % 0 % 1019,9 hPa 0,0 l/m 0,0 km/h (0 Bft) 0 min 0,0 km/h (0 Bft)
29.10.2009 04:10 16,3 C 9,6 C 0,0 UV-I 0,0 C 63 % 95 % 0 % 1019,9 hPa 0,0 l/m 0,0 km/h (0 Bft) 0 min 0,0 km/h (0 Bft)
29.10.2009 04:13 16,3 C 9,6 C 0,0 UV-I 0,0 C 63 % 95 % 0 % 1019,9 hPa 0,0 l/m 0,0 km/h (0 Bft) 0 min 0,0 km/h (0 Bft)
29.10.2009 04:15 16,3 C 9,7 C 0,0 UV-I 0,0 C 63 % 95 % 0 % 1020,1 hPa 0,0 l/m 0,0 km/h (0 Bft) 0 min 0,0 km/h (0 Bft)
29.10.2009 04:16 16,3 C 9,7 C 0,0 UV-I 0,0 C 63 % 95 % 0 % 1020,1 hPa 0,0 l/m 0,0 km/h (0 Bft) 0 min 0,0 km/h (0 Bft)
29.10.2009 04:18 16,3 C 9,7 C 0,0 UV-I 0,0 C 63 % 95 % 0 % 1020,1 hPa 0,0 l/m 0,0 km/h (0 Bft) 0 min 0,0 km/h (0 Bft)
29.10.2009 04:20 16,3 C 9,7 C 0,0 UV-I 0,0 C 63 % 95 % 0 % 1020,1 hPa 0,0 l/m 0,0 km/h (0 Bft) 0 min 0,0 km/h (0 Bft)
29.10.2009 04:22 16,2 C 9,7 C 0,0 UV-I 0,0 C 63 % 95 % 0 % 1020,1 hPa 0,0 l/m 0,0 km/h (0 Bft) 0 min 0,0 km/h (0 Bft)
29.10.2009 04:24 16,3 C 9,6 C 0,0 UV-I 0,0 C 63 % 95 % 0 % 1020,1 hPa 0,0 l/m 0,0 km/h (0 Bft) 0 min 0,0 km/h (0 Bft)
29.10.2009 04:26 16,3 C 9,6 C 0,0 UV-I 0,0 C 63 % 95 % 0 % 1020,1 hPa 0,0 l/m 0,0 km/h (0 Bft) 0 min 0,0 km/h (0 Bft)
29.10.2009 04:28 16,3 C 9,7 C 0,0 UV-I 0,0 C 63 % 95 % 0 % 1020,1 hPa 0,0 l/m 0,0 km/h (0 Bft) 0 min 0,0 km/h (0 Bft)
29.10.2009 04:30 16,3 C 9,6 C 0,0 UV-I 0,0 C 63 % 95 % 0 % 1020,1 hPa 0,0 l/m 0,0 km/h (0 Bft) 0 min 0,0 km/h (0 Bft)
29.10.2009 04:32 16,3 C 9,7 C 0,0 UV-I 0,0 C 63 % 95 % 0 % 1020,1 hPa 0,0 l/m 0,0 km/h (0 Bft) 0 min 0,0 km/h (0 Bft)
29.10.2009 04:34 16,3 C 9,7 C 0,0 UV-I 0,0 C 63 % 95 % 0 % 1020,1 hPa 0,0 l/m 0,0 km/h (0 Bft) 0 min 0,0 km/h (0 Bft)
29.10.2009 04:36 16,3 C 9,8 C 0,0 UV-I 0,0 C 63 % 95 % 0 % 1019,8 hPa 0,0 l/m 0,0 km/h (0 Bft) 0 min 0,0 km/h (0 Bft)
29.10.2009 04:38 16,3 C 9,8 C 0,0 UV-I 0,0 C 63 % 95 % 0 % 1019,8 hPa 0,0 l/m 0,0 km/h (0 Bft) 0 min 0,0 km/h (0 Bft)
29.10.2009 04:40 16,3 C 9,8 C 0,0 UV-I 0,0 C 63 % 95 % 0 % 1019,8 hPa 0,0 l/m 0,0 km/h (0 Bft) 0 min 0,0 km/h (0 Bft)
29.10.2009 04:42 16,3 C 9,9 C 0,0 UV-I 0,0 C 63 % 95 % 0 % 1019,8 hPa 0,0 l/m 0,0 km/h (0 Bft) 0 min 0,0 km/h (0 Bft)
29.10.2009 04:44 16,2 C 9,9 C 0,0 UV-I 0,0 C 63 % 95 % 0 % 1019,8 hPa 0,0 l/m 0,0 km/h (0 Bft) 0 min 0,0 km/h (0 Bft)
29.10.2009 04:46 16,3 C 9,9 C 0,0 UV-I 0,0 C 63 % 95 % 0 % 1019,8 hPa 0,0 l/m 0,0 km/h (0 Bft) 0 min 0,0 km/h (0 Bft)
29.10.2009 04:48 16,3 C 9,9 C 0,0 UV-I 0,0 C 63 % 95 % 0 % 1019,8 hPa 0,0 l/m 0,0 km/h (0 Bft) 0 min 0,0 km/h (0 Bft)
29.10.2009 04:50 16,2 C 9,9 C 0,0 UV-I 0,0 C 63 % 95 % 0 % 1019,8 hPa 0,0 l/m 0,0 km/h (0 Bft) 0 min 0,0 km/h (0 Bft)
29.10.2009 04:52 16,3 C 9,9 C 0,0 UV-I 0,0 C 64 % 95 % 0 % 1019,8 hPa 0,0 l/m 0,0 km/h (0 Bft) 0 min 0,0 km/h (0 Bft)
29.10.2009 04:54 16,2 C 9,9 C 0,0 UV-I 0,0 C 63 % 95 % 0 % 1019,8 hPa 0,0 l/m 0,0 km/h (0 Bft) 0 min 0,0 km/h (0 Bft)
29.10.2009 04:56 16,2 C 9,9 C 0,0 UV-I 0,0 C 63 % 95 % 0 % 1020,1 hPa 0,0 l/m 0,0 km/h (0 Bft) 0 min 0,0 km/h (0 Bft)
29.10.2009 04:58 16,2 C 10,0 C 0,0 UV-I 0,0 C 64 % 95 % 0 % 1020,1 hPa 0,0 l/m 0,0 km/h (0 Bft) 0 min 0,0 km/h (0 Bft)
29.10.2009 05:00 16,2 C 10,0 C 0,0 UV-I 0,0 C 64 % 95 % 0 % 1020,1 hPa 0,0 l/m 0,0 km/h (0 Bft) 0 min 0,0 km/h (0 Bft)
29.10.2009 05:02 16,2 C 10,0 C 0,0 UV-I 0,0 C 64 % 95 % 0 % 1020,1 hPa 0,0 l/m 0,0 km/h (0 Bft) 0 min 0,0 km/h (0 Bft)
29.10.2009 05:04 16,2 C 10,1 C 0,0 UV-I 0,0 C 64 % 95 % 0 % 1020,1 hPa 0,0 l/m 0,0 km/h (0 Bft) 0 min 0,0 km/h (0 Bft)
29.10.2009 05:06 16,2 C 10,0 C 0,0 UV-I 0,0 C 64 % 95 % 0 % 1020,1 hPa 0,0 l/m 0,0 km/h (0 Bft) 0 min 0,0 km/h (0 Bft)
29.10.2009 05:08 16,2 C 10,0 C 0,0 UV-I 0,0 C 64 % 95 % 0 % 1020,1 hPa 0,0 l/m 0,0 km/h (0 Bft) 0 min 0,0 km/h (0 Bft)
29.10.2009 05:10 16,2 C 10,0 C 0,0 UV-I 0,0 C 64 % 95 % 0 % 1020,1 hPa 0,0 l/m 0,0 km/h (0 Bft) 0 min 0,0 km/h (0 Bft)
29.10.2009 05:12 16,2 C 10,0 C 0,0 UV-I 0,0 C 64 % 95 % 0 % 1020,1 hPa 0,0 l/m 0,0 km/h (0 Bft) 0 min 0,0 km/h (0 Bft)
29.10.2009 05:14 16,4 C 10,1 C 0,0 UV-I 0,0 C 64 % 95 % 0 % 1020,1 hPa 0,0 l/m 0,0 km/h (0 Bft) 0 min 0,0 km/h (0 Bft)
29.10.2009 05:16 16,2 C 10,1 C 0,0 UV-I 0,0 C 64 % 95 % 0 % 1020,1 hPa 0,0 l/m 0,0 km/h (0 Bft) 0 min 0,0 km/h (0 Bft)
29.10.2009 05:18 16,3 C 10,1 C 0,0 UV-I 0,0 C 64 % 95 % 0 % 1020,1 hPa 0,0 l/m 0,0 km/h (0 Bft) 0 min 0,0 km/h (0 Bft)
29.10.2009 05:20 16,2 C 10,1 C 0,0 UV-I 0,0 C 64 % 95 % 0 % 1020,1 hPa 0,0 l/m 0,0 km/h (0 Bft) 0 min 0,0 km/h (0 Bft)
29.10.2009 05:22 16,2 C 10,2 C 0,0 UV-I 0,0 C 64 % 95 % 0 % 1020,1 hPa 0,0 l/m 0,0 km/h (0 Bft) 0 min 0,0 km/h (0 Bft)
29.10.2009 05:24 16,2 C 10,3 C 0,0 UV-I 0,0 C 64 % 95 % 0 % 1020,1 hPa 0,0 l/m 0,0 km/h (0 Bft) 0 min 0,0 km/h (0 Bft)
29.10.2009 05:26 16,2 C 10,3 C 0,0 UV-I 0,0 C 64 % 95 % 0 % 1020,1 hPa 0,0 l/m 0,0 km/h (0 Bft) 0 min 0,0 km/h (0 Bft)
29.10.2009 05:28 16,2 C 10,3 C 0,0 UV-I 0,0 C 64 % 95 % 0 % 1020,1 hPa 0,0 l/m 0,0 km/h (0 Bft) 0 min 0,0 km/h (0 Bft)
29.10.2009 05:30 16,2 C 10,3 C 0,0 UV-I 0,0 C 64 % 95 % 0 % 1020,1 hPa 0,0 l/m 0,0 km/h (0 Bft) 0 min 3,1 km/h (1 Bft)
29.10.2009 05:32 16,2 C 10,3 C 0,0 UV-I 0,0 C 64 % 95 % 0 % 1020,1 hPa 0,0 l/m 0,0 km/h (0 Bft) 0 min 0,0 km/h (0 Bft)
29.10.2009 05:34 16,4 C 10,2 C 0,0 UV-I 0,0 C 64 % 95 % 0 % 1020,1 hPa 0,0 l/m 0,0 km/h (0 Bft) 0 min 0,0 km/h (0 Bft)
29.10.2009 05:36 16,2 C 10,2 C 0,0 UV-I 0,0 C 64 % 95 % 0 % 1020,3 hPa 0,0 l/m 0,0 km/h (0 Bft) 0 min 0,0 km/h (0 Bft)
29.10.2009 05:38 16,2 C 10,2 C 0,0 UV-I 0,0 C 65 % 95 % 0 % 1020,3 hPa 0,0 l/m 0,0 km/h (0 Bft) 0 min 0,0 km/h (0 Bft)
29.10.2009 05:40 16,2 C 10,3 C 0,0 UV-I 0,0 C 65 % 95 % 0 % 1020,3 hPa 0,0 l/m 0,0 km/h (0 Bft) 0 min 0,0 km/h (0 Bft)
29.10.2009 05:42 16,2 C 10,3 C 0,0 UV-I 0,0 C 65 % 95 % 0 % 1020,3 hPa 0,0 l/m 0,2 km/h (0 Bft) 0 min 0,0 km/h (0 Bft)
29.10.2009 05:44 16,4 C 10,3 C 0,0 UV-I 0,0 C 65 % 95 % 0 % 1020,3 hPa 0,0 l/m 0,2 km/h (0 Bft) 0 min 0,0 km/h (0 Bft)
29.10.2009 05:46 16,4 C 10,3 C 0,0 UV-I 0,0 C 65 % 95 % 0 % 1020,3 hPa 0,0 l/m 0,2 km/h (0 Bft) 0 min 0,0 km/h (0 Bft)
29.10.2009 05:48 16,4 C 10,3 C 0,0 UV-I 0,0 C 65 % 95 % 0 % 1020,3 hPa 0,0 l/m 0,2 km/h (0 Bft) 0 min 0,0 km/h (0 Bft)
29.10.2009 05:50 16,4 C 10,3 C 0,0 UV-I 0,0 C 65 % 95 % 0 % 1020,3 hPa 0,0 l/m 0,2 km/h (0 Bft) 0 min 3,6 km/h (1 Bft)
29.10.2009 05:52 16,4 C 10,4 C 0,0 UV-I 0,0 C 65 % 95 % 0 % 1020,3 hPa 0,0 l/m 0,2 km/h (0 Bft) 0 min 0,0 km/h (0 Bft)
29.10.2009 05:54 16,4 C 10,4 C 0,0 UV-I 0,0 C 65 % 95 % 0 % 1020,3 hPa 0,0 l/m 0,0 km/h (0 Bft) 0 min 0,0 km/h (0 Bft)
29.10.2009 05:56 16,4 C 10,4 C 0,0 UV-I 0,0 C 65 % 95 % 0 % 1020,7 hPa 0,0 l/m 0,0 km/h (0 Bft) 0 min 0,0 km/h (0 Bft)
29.10.2009 05:58 16,4 C 10,4 C 0,0 UV-I 0,0 C 65 % 95 % 0 % 1020,7 hPa 0,0 l/m 0,0 km/h (0 Bft) 0 min 0,0 km/h (0 Bft)
29.10.2009 06:00 16,4 C 10,4 C 0,0 UV-I 0,0 C 65 % 95 % 0 % 1020,7 hPa 0,0 l/m 0,0 km/h (0 Bft) 0 min 0,0 km/h (0 Bft)
29.10.2009 06:02 16,4 C 10,4 C 0,0 UV-I 0,0 C 65 % 95 % 0 % 1020,7 hPa 0,0 l/m 0,0 km/h (0 Bft) 0 min 0,0 km/h (0 Bft)
29.10.2009 06:04 16,4 C 10,4 C 0,0 UV-I 0,0 C 65 % 95 % 0 % 1020,7 hPa 0,0 l/m 0,0 km/h (0 Bft) 0 min 0,0 km/h (0 Bft)
29.10.2009 06:06 16,4 C 10,4 C 0,0 UV-I 0,0 C 65 % 95 % 0 % 1020,7 hPa 0,0 l/m 0,0 km/h (0 Bft) 0 min 0,0 km/h (0 Bft)
29.10.2009 06:08 16,4 C 10,4 C 0,0 UV-I 0,0 C 65 % 95 % 0 % 1020,7 hPa 0,0 l/m 0,0 km/h (0 Bft) 0 min 0,0 km/h (0 Bft)
29.10.2009 06:10 16,4 C 10,4 C 0,0 UV-I 0,0 C 65 % 95 % 0 % 1020,7 hPa 0,0 l/m 0,2 km/h (0 Bft) 0 min 0,0 km/h (0 Bft)
29.10.2009 06:12 16,4 C 10,4 C 0,0 UV-I 0,0 C 65 % 95 % 0 % 1020,7 hPa 0,0 l/m 0,2 km/h (0 Bft) 0 min 0,0 km/h (0 Bft)
29.10.2009 06:14 16,4 C 10,4 C 0,0 UV-I 0,0 C 65 % 95 % 0 % 1020,7 hPa 0,0 l/m 0,2 km/h (0 Bft) 0 min 2,4 km/h (1 Bft)
29.10.2009 06:16 16,4 C 10,5 C 0,0 UV-I 0,0 C 65 % 95 % 0 % 1020,4 hPa 0,0 l/m 0,0 km/h (0 Bft) 0 min 0,0 km/h (0 Bft)
29.10.2009 06:18 16,4 C 10,5 C 0,0 UV-I 0,0 C 65 % 95 % 0 % 1020,4 hPa 0,0 l/m 0,0 km/h (0 Bft) 0 min 0,0 km/h (0 Bft)
29.10.2009 06:20 16,4 C 10,5 C 0,0 UV-I 0,0 C 65 % 95 % 0 % 1020,4 hPa 0,0 l/m 0,0 km/h (0 Bft) 0 min 3,8 km/h (1 Bft)
29.10.2009 06:22 16,4 C 10,5 C 0,0 UV-I 0,0 C 65 % 95 % 0 % 1020,4 hPa 0,0 l/m 0,2 km/h (0 Bft) 0 min 0,0 km/h (0 Bft)
29.10.2009 06:24 16,4 C 10,4 C 0,0 UV-I 0,0 C 65 % 95 % 0 % 1020,4 hPa 0,0 l/m 0,2 km/h (0 Bft) 0 min 0,0 km/h (0 Bft)
29.10.2009 06:26 16,4 C 10,4 C 0,0 UV-I 0,0 C 65 % 95 % 0 % 1020,4 hPa 0,0 l/m 0,2 km/h (0 Bft) 0 min 0,0 km/h (0 Bft)
29.10.2009 06:28 16,4 C 10,4 C 0,0 UV-I 0,0 C 65 % 95 % 0 % 1020,4 hPa 0,0 l/m 0,2 km/h (0 Bft) 0 min 2,4 km/h (1 Bft)
29.10.2009 06:30 16,4 C 10,4 C 0,0 UV-I 0,0 C 65 % 95 % 0 % 1020,4 hPa 0,0 l/m 0,2 km/h (0 Bft) 0 min 0,0 km/h (0 Bft)
29.10.2009 06:32 16,4 C 10,4 C 0,0 UV-I 0,0 C 65 % 95 % 0 % 1020,4 hPa 0,0 l/m 0,2 km/h (0 Bft) 0 min 0,0 km/h (0 Bft)
29.10.2009 06:34 16,4 C 10,4 C 0,0 UV-I 0,0 C 65 % 95 % 0 % 1020,4 hPa 0,0 l/m 0,2 km/h (0 Bft) 0 min 0,0 km/h (0 Bft)
29.10.2009 06:36 16,4 C 10,4 C 0,0 UV-I 0,0 C 65 % 95 % 0 % 1020,6 hPa 0,0 l/m 0,2 km/h (0 Bft) 0 min 0,0 km/h (0 Bft)
29.10.2009 06:38 16,4 C 10,4 C 0,0 UV-I 0,0 C 65 % 95 % 0 % 1020,6 hPa 0,0 l/m 0,2 km/h (0 Bft) 0 min 0,0 km/h (0 Bft)
29.10.2009 06:40 16,4 C 10,4 C 0,0 UV-I 0,0 C 65 % 95 % 0 % 1020,6 hPa 0,0 l/m 0,0 km/h (0 Bft) 0 min 0,0 km/h (0 Bft)
29.10.2009 06:42 16,4 C 10,4 C 0,0 UV-I 0,0 C 65 % 95 % 0 % 1020,6 hPa 0,0 l/m 0,0 km/h (0 Bft) 0 min 0,0 km/h (0 Bft)
29.10.2009 06:44 16,4 C 10,4 C 0,0 UV-I 0,0 C 65 % 95 % 0 % 1020,6 hPa 0,0 l/m 0,0 km/h (0 Bft) 0 min 0,0 km/h (0 Bft)
29.10.2009 06:46 16,4 C 10,4 C 0,0 UV-I 0,0 C 65 % 95 % 0 % 1020,6 hPa 0,0 l/m 0,0 km/h (0 Bft) 0 min 0,0 km/h (0 Bft)
29.10.2009 06:48 16,4 C 10,4 C 0,0 UV-I 0,0 C 65 % 95 % 0 % 1020,6 hPa 0,0 l/m 0,0 km/h (0 Bft) 0 min 0,0 km/h (0 Bft)
29.10.2009 06:50 16,4 C 10,4 C 0,0 UV-I 0,0 C 65 % 95 % 0 % 1020,6 hPa 0,0 l/m 0,0 km/h (0 Bft) 0 min 0,0 km/h (0 Bft)
29.10.2009 06:52 16,4 C 10,4 C 0,0 UV-I 0,0 C 65 % 95 % 0 % 1020,6 hPa 0,0 l/m 0,0 km/h (0 Bft) 0 min 0,0 km/h (0 Bft)
29.10.2009 06:54 16,4 C 10,4 C 0,0 UV-I 0,0 C 65 % 95 % 0 % 1020,6 hPa 0,0 l/m 0,0 km/h (0 Bft) 0 min 0,0 km/h (0 Bft)
29.10.2009 06:56 16,4 C 10,4 C 0,0 UV-I 0,0 C 65 % 95 % 0 % 1020,8 hPa 0,0 l/m 0,0 km/h (0 Bft) 0 min 0,0 km/h (0 Bft)
29.10.2009 06:58 16,4 C 10,5 C 0,0 UV-I 0,0 C 65 % 95 % 0 % 1020,8 hPa 0,0 l/m 0,0 km/h (0 Bft) 0 min 0,0 km/h (0 Bft)
29.10.2009 07:00 16,4 C 10,4 C 0,0 UV-I 0,0 C 65 % 95 % 0 % 1020,8 hPa 0,0 l/m 0,0 km/h (0 Bft) 0 min 0,0 km/h (0 Bft)
29.10.2009 07:02 16,4 C 10,5 C 0,0 UV-I 0,0 C 65 % 95 % 0 % 1020,8 hPa 0,0 l/m 0,0 km/h (0 Bft) 0 min 0,0 km/h (0 Bft)
29.10.2009 07:04 16,4 C 10,4 C 0,0 UV-I 0,0 C 65 % 95 % 0 % 1020,8 hPa 0,0 l/m 0,0 km/h (0 Bft) 0 min 0,0 km/h (0 Bft)
29.10.2009 07:06 16,4 C 10,4 C 0,0 UV-I 0,0 C 65 % 95 % 0 % 1020,8 hPa 0,0 l/m 0,0 km/h (0 Bft) 0 min 0,0 km/h (0 Bft)
29.10.2009 07:08 16,4 C 10,4 C 0,0 UV-I 0,0 C 65 % 95 % 0 % 1020,8 hPa 0,0 l/m 0,0 km/h (0 Bft) 0 min 0,0 km/h (0 Bft)
29.10.2009 07:10 16,4 C 10,5 C 0,0 UV-I 0,0 C 65 % 95 % 0 % 1020,8 hPa 0,0 l/m 0,0 km/h (0 Bft) 0 min 0,0 km/h (0 Bft)
29.10.2009 07:14 16,4 C 10,5 C 0,0 UV-I 0,0 C 66 % 95 % 0 % 1020,8 hPa 0,0 l/m 0,0 km/h (0 Bft) 0 min 0,0 km/h (0 Bft)
29.10.2009 07:16 16,4 C 10,5 C 0,0 UV-I 0,0 C 66 % 95 % 0 % 1021,0 hPa 0,0 l/m 0,0 km/h (0 Bft) 0 min 0,0 km/h (0 Bft)
29.10.2009 07:18 16,4 C 10,5 C 0,0 UV-I 0,0 C 66 % 95 % 0 % 1021,0 hPa 0,0 l/m 0,0 km/h (0 Bft) 0 min 0,0 km/h (0 Bft)
29.10.2009 07:20 16,4 C 10,5 C 0,0 UV-I 0,0 C 66 % 95 % 0 % 1021,0 hPa 0,0 l/m 0,0 km/h (0 Bft) 0 min 0,0 km/h (0 Bft)
29.10.2009 07:22 16,4 C 10,5 C 0,0 UV-I 0,0 C 66 % 95 % 0 % 1021,0 hPa 0,0 l/m 0,0 km/h (0 Bft) 0 min 0,0 km/h (0 Bft)
29.10.2009 07:24 16,4 C 10,5 C 0,0 UV-I 0,0 C 66 % 95 % 0 % 1021,0 hPa 0,0 l/m 0,0 km/h (0 Bft) 0 min 0,0 km/h (0 Bft)
29.10.2009 07:28 16,4 C 10,5 C 0,0 UV-I 0,0 C 66 % 95 % 0 % 1021,0 hPa 0,0 l/m 0,0 km/h (0 Bft) 0 min 0,0 km/h (0 Bft)
29.10.2009 07:30 16,4 C 10,5 C 0,0 UV-I 0,0 C 66 % 95 % 0 % 1021,0 hPa 0,0 l/m 0,0 km/h (0 Bft) 0 min 0,0 km/h (0 Bft)
29.10.2009 07:32 16,4 C 10,5 C 0,0 UV-I 0,0 C 66 % 95 % 0 % 1021,0 hPa 0,0 l/m 0,0 km/h (0 Bft) 0 min 0,0 km/h (0 Bft)
29.10.2009 07:34 16,4 C 10,5 C 0,0 UV-I 0,0 C 66 % 95 % 0 % 1021,0 hPa 0,0 l/m 0,0 km/h (0 Bft) 0 min 0,0 km/h (0 Bft)
29.10.2009 07:36 16,4 C 10,5 C 0,0 UV-I 0,0 C 66 % 95 % 0 % 1020,9 hPa 0,0 l/m 0,0 km/h (0 Bft) 0 min 0,0 km/h (0 Bft)
29.10.2009 07:38 16,4 C 10,5 C 0,0 UV-I 0,0 C 66 % 95 % 0 % 1020,9 hPa 0,0 l/m 0,0 km/h (0 Bft) 0 min 0,0 km/h (0 Bft)
29.10.2009 07:42 16,4 C 10,5 C 0,0 UV-I 0,0 C 66 % 95 % 0 % 1020,9 hPa 0,2 l/m 0,0 km/h (0 Bft) 0 min 0,0 km/h (0 Bft)
29.10.2009 07:44 16,4 C 10,5 C 0,0 UV-I 0,0 C 66 % 95 % 0 % 1020,9 hPa 0,0 l/m 0,0 km/h (0 Bft) 0 min 0,0 km/h (0 Bft)
29.10.2009 07:46 16,4 C 10,5 C 0,0 UV-I 0,0 C 66 % 95 % 0 % 1020,9 hPa 0,0 l/m 0,0 km/h (0 Bft) 0 min 0,0 km/h (0 Bft)
29.10.2009 07:48 16,4 C 10,5 C 0,0 UV-I 0,0 C 66 % 95 % 0 % 1020,9 hPa 0,0 l/m 0,0 km/h (0 Bft) 0 min 0,0 km/h (0 Bft)
29.10.2009 07:50 16,4 C 10,5 C 0,0 UV-I 0,0 C 66 % 95 % 0 % 1020,9 hPa 0,0 l/m 0,0 km/h (0 Bft) 0 min 0,0 km/h (0 Bft)
29.10.2009 07:52 16,4 C 10,5 C 0,0 UV-I 0,0 C 66 % 95 % 0 % 1020,9 hPa 0,0 l/m 0,0 km/h (0 Bft) 0 min 0,0 km/h (0 Bft)
29.10.2009 07:54 16,4 C 10,7 C 0,0 UV-I 0,0 C 66 % 95 % 0 % 1020,9 hPa 0,0 l/m 0,0 km/h (0 Bft) 0 min 0,0 km/h (0 Bft)
29.10.2009 07:56 16,4 C 10,6 C 0,0 UV-I 0,0 C 66 % 95 % 0 % 1021,2 hPa 0,0 l/m 0,0 km/h (0 Bft) 0 min 0,0 km/h (0 Bft)
29.10.2009 08:00 16,4 C 10,6 C 0,0 UV-I 0,0 C 66 % 95 % 0 % 1021,2 hPa 0,0 l/m 0,0 km/h (0 Bft) 0 min 0,0 km/h (0 Bft)
29.10.2009 08:02 16,4 C 10,7 C 0,0 UV-I 0,0 C 66 % 95 % 0 % 1021,2 hPa 0,0 l/m 0,0 km/h (0 Bft) 0 min 0,0 km/h (0 Bft)
29.10.2009 08:04 16,4 C 10,7 C 0,0 UV-I 0,0 C 66 % 95 % 0 % 1021,2 hPa 0,0 l/m 0,0 km/h (0 Bft) 0 min 0,0 km/h (0 Bft)
29.10.2009 08:06 16,4 C 10,7 C 0,0 UV-I 0,0 C 66 % 95 % 0 % 1021,2 hPa 0,0 l/m 0,0 km/h (0 Bft) 0 min 0,0 km/h (0 Bft)
29.10.2009 08:08 16,4 C 10,7 C 0,0 UV-I 0,0 C 66 % 95 % 0 % 1021,2 hPa 0,0 l/m 0,0 km/h (0 Bft) 0 min 0,0 km/h (0 Bft)
29.10.2009 08:10 16,4 C 10,7 C 0,0 UV-I 0,0 C 66 % 95 % 0 % 1021,2 hPa 0,0 l/m 0,0 km/h (0 Bft) 0 min 0,0 km/h (0 Bft)
29.10.2009 08:12 16,4 C 10,7 C 0,0 UV-I 0,0 C 66 % 95 % 0 % 1021,2 hPa 0,0 l/m 0,2 km/h (0 Bft) 0 min 0,0 km/h (0 Bft)
29.10.2009 08:14 16,4 C 10,7 C 0,0 UV-I 0,0 C 66 % 95 % 0 % 1021,2 hPa 0,0 l/m 0,2 km/h (0 Bft) 0 min 0,0 km/h (0 Bft)
29.10.2009 08:16 16,4 C 10,6 C 0,0 UV-I 0,0 C 66 % 95 % 0 % 1021,9 hPa 0,0 l/m 0,2 km/h (0 Bft) 0 min 0,0 km/h (0 Bft)
29.10.2009 08:18 16,4 C 10,7 C 0,0 UV-I 0,0 C 66 % 95 % 0 % 1021,9 hPa 0,0 l/m 0,0 km/h (0 Bft) 0 min 0,0 km/h (0 Bft)
29.10.2009 08:20 16,4 C 10,6 C 0,0 UV-I 0,0 C 66 % 95 % 0 % 1021,9 hPa 0,0 l/m 0,0 km/h (0 Bft) 0 min 0,0 km/h (0 Bft)
29.10.2009 08:22 16,4 C 10,6 C 0,0 UV-I 0,0 C 66 % 95 % 0 % 1021,9 hPa 0,0 l/m 0,0 km/h (0 Bft) 0 min 0,0 km/h (0 Bft)
29.10.2009 08:24 16,4 C 10,7 C 0,0 UV-I 0,0 C 66 % 95 % 0 % 1021,9 hPa 0,0 l/m 0,0 km/h (0 Bft) 0 min 0,0 km/h (0 Bft)
29.10.2009 08:26 16,4 C 10,7 C 0,0 UV-I 0,0 C 66 % 95 % 0 % 1021,9 hPa 0,0 l/m 0,0 km/h (0 Bft) 0 min 0,0 km/h (0 Bft)
29.10.2009 08:28 16,4 C 10,7 C 0,0 UV-I 0,0 C 66 % 95 % 0 % 1021,9 hPa 0,0 l/m 0,0 km/h (0 Bft) 0 min 0,0 km/h (0 Bft)
29.10.2009 08:30 16,4 C 10,6 C 0,0 UV-I 0,0 C 66 % 95 % 0 % 1021,9 hPa 0,0 l/m 0,0 km/h (0 Bft) 0 min 0,0 km/h (0 Bft)
29.10.2009 08:32 16,4 C 10,7 C 0,0 UV-I 0,0 C 66 % 95 % 0 % 1021,9 hPa 0,0 l/m 0,0 km/h (0 Bft) 0 min 0,0 km/h (0 Bft)
29.10.2009 08:34 16,4 C 10,6 C 0,0 UV-I 0,0 C 66 % 95 % 0 % 1021,9 hPa 0,0 l/m 0,0 km/h (0 Bft) 0 min 0,0 km/h (0 Bft)
29.10.2009 08:36 16,4 C 10,7 C 0,0 UV-I 0,0 C 66 % 95 % 0 % 1021,4 hPa 0,0 l/m 0,0 km/h (0 Bft) 0 min 0,0 km/h (0 Bft)
29.10.2009 08:38 16,4 C 10,7 C 0,0 UV-I 0,0 C 67 % 95 % 0 % 1021,4 hPa 0,0 l/m 0,0 km/h (0 Bft) 0 min 0,0 km/h (0 Bft)
29.10.2009 08:40 16,4 C 10,7 C 0,0 UV-I 0,0 C 66 % 95 % 0 % 1021,4 hPa 0,0 l/m 0,0 km/h (0 Bft) 0 min 0,0 km/h (0 Bft)
29.10.2009 08:42 16,4 C 10,6 C 0,0 UV-I 0,0 C 67 % 95 % 0 % 1021,4 hPa 0,0 l/m 0,0 km/h (0 Bft) 0 min 0,0 km/h (0 Bft)
29.10.2009 08:44 16,4 C 10,6 C 0,0 UV-I 0,0 C 67 % 95 % 0 % 1021,4 hPa 0,0 l/m 0,0 km/h (0 Bft) 0 min 0,0 km/h (0 Bft)
29.10.2009 08:46 16,4 C 10,7 C 0,0 UV-I 0,0 C 67 % 95 % 0 % 1021,4 hPa 0,0 l/m 0,0 km/h (0 Bft) 0 min 0,0 km/h (0 Bft)
29.10.2009 08:48 16,5 C 10,7 C 0,0 UV-I 0,0 C 67 % 95 % 0 % 1021,4 hPa 0,0 l/m 0,0 km/h (0 Bft) 0 min 0,0 km/h (0 Bft)
29.10.2009 08:50 16,5 C 10,7 C 0,0 UV-I 0,0 C 67 % 95 % 0 % 1021,4 hPa 0,0 l/m 0,0 km/h (0 Bft) 0 min 0,0 km/h (0 Bft)
29.10.2009 08:52 16,4 C 10,7 C 0,0 UV-I 0,0 C 67 % 95 % 0 % 1021,4 hPa 0,0 l/m 0,0 km/h (0 Bft) 0 min 0,0 km/h (0 Bft)
29.10.2009 08:54 16,4 C 10,8 C 0,0 UV-I 0,0 C 67 % 96 % 0 % 1021,4 hPa 0,0 l/m 0,0 km/h (0 Bft) 0 min 0,0 km/h (0 Bft)
29.10.2009 08:56 16,5 C 10,8 C 0,0 UV-I 0,0 C 67 % 96 % 0 % 1021,4 hPa 0,0 l/m 0,0 km/h (0 Bft) 0 min 0,0 km/h (0 Bft)
29.10.2009 09:00 16,5 C 10,8 C 0,0 UV-I 0,1 C 67 % 96 % 3 % 1021,4 hPa 0,0 l/m 0,0 km/h (0 Bft) 0 min 0,0 km/h (0 Bft)
29.10.2009 09:02 16,5 C 10,8 C 0,0 UV-I 0,1 C 67 % 96 % 3 % 1021,4 hPa 0,0 l/m 0,0 km/h (0 Bft) 0 min 0,0 km/h (0 Bft)
29.10.2009 09:04 16,5 C 10,8 C 0,0 UV-I 0,1 C 67 % 96 % 3 % 1021,4 hPa 0,0 l/m 0,0 km/h (0 Bft) 0 min 0,0 km/h (0 Bft)
29.10.2009 09:06 16,5 C 10,8 C 0,0 UV-I 0,1 C 67 % 96 % 3 % 1021,4 hPa 0,0 l/m 0,0 km/h (0 Bft) 0 min 0,0 km/h (0 Bft)
29.10.2009 09:08 16,5 C 10,8 C 0,0 UV-I 0,1 C 67 % 96 % 3 % 1021,4 hPa 0,0 l/m 0,0 km/h (0 Bft) 0 min 0,0 km/h (0 Bft)
29.10.2009 09:10 16,5 C 10,9 C 0,0 UV-I 0,0 C 67 % 96 % 0 % 1021,4 hPa 0,0 l/m 0,0 km/h (0 Bft) 0 min 0,0 km/h (0 Bft)
29.10.2009 09:12 16,5 C 10,9 C 0,0 UV-I 0,0 C 67 % 96 % 0 % 1021,4 hPa 0,0 l/m 0,0 km/h (0 Bft) 0 min 0,0 km/h (0 Bft)
29.10.2009 09:14 16,5 C 11,0 C 0,0 UV-I 0,0 C 67 % 96 % 0 % 1021,4 hPa 0,0 l/m 0,2 km/h (0 Bft) 0 min 0,0 km/h (0 Bft)
29.10.2009 09:16 16,5 C 10,9 C 0,0 UV-I 0,0 C 67 % 96 % 0 % 1021,5 hPa 0,0 l/m 0,2 km/h (0 Bft) 0 min 0,0 km/h (0 Bft)
29.10.2009 09:18 16,5 C 10,9 C 0,0 UV-I 0,0 C 67 % 96 % 0 % 1021,5 hPa 0,0 l/m 0,2 km/h (0 Bft) 0 min 0,0 km/h (0 Bft)
29.10.2009 09:20 16,5 C 11,0 C 0,0 UV-I 0,0 C 67 % 96 % 0 % 1021,5 hPa 0,0 l/m 0,2 km/h (0 Bft) 0 min 0,0 km/h (0 Bft)
29.10.2009 09:22 16,5 C 11,0 C 0,0 UV-I 0,0 C 67 % 96 % 0 % 1021,5 hPa 0,0 l/m 0,2 km/h (0 Bft) 0 min 2,4 km/h (1 Bft)
29.10.2009 09:24 16,5 C 11,0 C 0,0 UV-I 0,0 C 67 % 96 % 0 % 1021,5 hPa 0,0 l/m 0,2 km/h (0 Bft) 0 min 0,0 km/h (0 Bft)
29.10.2009 09:28 16,6 C 11,1 C 0,0 UV-I 0,0 C 67 % 96 % 0 % 1021,5 hPa 0,0 l/m 0,2 km/h (0 Bft) 0 min 0,0 km/h (0 Bft)
29.10.2009 09:30 16,6 C 11,1 C 0,0 UV-I 0,0 C 67 % 96 % 0 % 1021,5 hPa 0,0 l/m 0,2 km/h (0 Bft) 0 min 0,0 km/h (0 Bft)
29.10.2009 09:32 16,5 C 11,1 C 0,0 UV-I 0,0 C 67 % 96 % 0 % 1021,5 hPa 0,0 l/m 0,2 km/h (0 Bft) 0 min 0,0 km/h (0 Bft)
29.10.2009 09:34 16,6 C 11,1 C 0,0 UV-I 0,0 C 67 % 96 % 0 % 1021,5 hPa 0,0 l/m 0,0 km/h (0 Bft) 0 min 0,0 km/h (0 Bft)
29.10.2009 09:36 16,6 C 11,1 C 0,0 UV-I 0,0 C 67 % 96 % 0 % 1021,5 hPa 0,0 l/m 0,0 km/h (0 Bft) 0 min 0,0 km/h (0 Bft)
29.10.2009 09:38 16,6 C 11,1 C 0,0 UV-I 0,0 C 67 % 96 % 0 % 1021,5 hPa 0,0 l/m 0,0 km/h (0 Bft) 0 min 0,0 km/h (0 Bft)
29.10.2009 09:42 16,6 C 11,1 C 0,0 UV-I 0,0 C 67 % 96 % 0 % 1021,5 hPa 0,0 l/m 0,0 km/h (0 Bft) 0 min 0,0 km/h (0 Bft)
29.10.2009 09:46 16,6 C 11,1 C 0,1 UV-I 0,0 C 67 % 96 % 0 % 1021,5 hPa 0,0 l/m 0,0 km/h (0 Bft) 0 min 0,0 km/h (0 Bft)
29.10.2009 09:48 16,6 C 11,1 C 0,1 UV-I 0,0 C 67 % 96 % 0 % 1021,5 hPa 0,0 l/m 0,0 km/h (0 Bft) 0 min 0,0 km/h (0 Bft)
29.10.2009 09:56 16,6 C 11,2 C 0,2 UV-I 0,0 C 67 % 96 % 0 % 1021,9 hPa 0,0 l/m 0,0 km/h (0 Bft) 0 min 0,0 km/h (0 Bft)
29.10.2009 09:58 16,6 C 11,2 C 0,2 UV-I 0,0 C 67 % 96 % 0 % 1021,9 hPa 0,0 l/m 0,0 km/h (0 Bft) 0 min 0,0 km/h (0 Bft)
29.10.2009 10:00 16,6 C 11,2 C 0,1 UV-I 0,0 C 67 % 96 % 0 % 1021,9 hPa 0,0 l/m 0,0 km/h (0 Bft) 0 min 0,0 km/h (0 Bft)
29.10.2009 10:02 16,6 C 11,2 C 0,1 UV-I 0,0 C 67 % 96 % 0 % 1021,9 hPa 0,0 l/m 0,0 km/h (0 Bft) 0 min 0,0 km/h (0 Bft)
29.10.2009 10:04 16,6 C 11,3 C 0,1 UV-I 0,0 C 67 % 96 % 0 % 1021,9 hPa 0,0 l/m 0,0 km/h (0 Bft) 0 min 0,0 km/h (0 Bft)
29.10.2009 10:06 16,6 C 11,3 C 0,0 UV-I 0,0 C 67 % 96 % 0 % 1021,9 hPa 0,0 l/m 0,0 km/h (0 Bft) 0 min 0,0 km/h (0 Bft)
29.10.2009 10:12 16,7 C 11,2 C 0,2 UV-I 0,1 C 67 % 96 % 3 % 1021,9 hPa 0,0 l/m 0,0 km/h (0 Bft) 0 min 0,0 km/h (0 Bft)
29.10.2009 10:14 16,7 C 11,2 C 0,2 UV-I 0,1 C 67 % 96 % 3 % 1021,9 hPa 0,0 l/m 0,0 km/h (0 Bft) 0 min 0,0 km/h (0 Bft)
29.10.2009 10:16 16,7 C 11,3 C 0,2 UV-I 0,0 C 67 % 96 % 0 % 1022,1 hPa 0,0 l/m 0,0 km/h (0 Bft) 0 min 0,0 km/h (0 Bft)
29.10.2009 10:18 16,7 C 11,3 C 0,2 UV-I 0,0 C 67 % 96 % 0 % 1022,1 hPa 0,0 l/m 0,0 km/h (0 Bft) 0 min 0,0 km/h (0 Bft)
29.10.2009 10:20 16,7 C 11,3 C 0,2 UV-I 0,0 C 67 % 96 % 0 % 1022,1 hPa 0,0 l/m 0,2 km/h (0 Bft) 0 min 0,0 km/h (0 Bft)
29.10.2009 10:22 16,7 C 11,3 C 0,2 UV-I 0,0 C 67 % 96 % 0 % 1022,1 hPa 0,0 l/m 0,2 km/h (0 Bft) 0 min 0,0 km/h (0 Bft)
29.10.2009 10:24 16,7 C 11,3 C 0,2 UV-I 0,0 C 67 % 96 % 0 % 1022,1 hPa 0,0 l/m 0,2 km/h (0 Bft) 0 min 0,0 km/h (0 Bft)
29.10.2009 10:26 16,7 C 11,4 C 0,1 UV-I 0,0 C 67 % 96 % 0 % 1022,1 hPa 0,0 l/m 0,2 km/h (0 Bft) 0 min 0,0 km/h (0 Bft)
29.10.2009 10:28 16,7 C 11,3 C 0,1 UV-I 0,0 C 67 % 96 % 0 % 1022,1 hPa 0,0 l/m 0,2 km/h (0 Bft) 0 min 0,0 km/h (0 Bft)
29.10.2009 10:30 16,7 C 11,4 C 0,2 UV-I 0,0 C 67 % 96 % 0 % 1022,1 hPa 0,0 l/m 0,2 km/h (0 Bft) 0 min 0,0 km/h (0 Bft)
29.10.2009 10:32 16,7 C 11,4 C 0,2 UV-I 0,0 C 67 % 96 % 0 % 1022,1 hPa 0,0 l/m 0,2 km/h (0 Bft) 0 min 0,0 km/h (0 Bft)
29.10.2009 10:34 16,7 C 11,4 C 0,2 UV-I 0,0 C 67 % 96 % 0 % 1022,1 hPa 0,0 l/m 0,2 km/h (0 Bft) 0 min 0,0 km/h (0 Bft)
29.10.2009 10:36 16,8 C 11,5 C 0,2 UV-I 0,0 C 67 % 96 % 0 % 1022,1 hPa 0,0 l/m 0,2 km/h (0 Bft) 0 min 2,4 km/h (1 Bft)
29.10.2009 10:42 16,7 C 11,4 C 0,1 UV-I 0,0 C 67 % 96 % 0 % 1022,1 hPa 0,0 l/m 0,0 km/h (0 Bft) 0 min 0,0 km/h (0 Bft)
29.10.2009 10:44 16,7 C 11,4 C 0,1 UV-I 0,1 C 67 % 96 % 3 % 1022,1 hPa 0,0 l/m 0,0 km/h (0 Bft) 0 min 0,0 km/h (0 Bft)
29.10.2009 10:46 16,8 C 11,5 C 0,2 UV-I 0,0 C 67 % 96 % 0 % 1022,1 hPa 0,0 l/m 0,2 km/h (0 Bft) 0 min 2,6 km/h (1 Bft)
29.10.2009 10:48 16,8 C 11,6 C 0,2 UV-I 0,0 C 67 % 96 % 0 % 1022,1 hPa 0,0 l/m 0,0 km/h (0 Bft) 0 min 0,0 km/h (0 Bft)
29.10.2009 10:50 16,8 C 11,5 C 0,3 UV-I 0,2 C 67 % 96 % 6 % 1022,1 hPa 0,0 l/m 0,0 km/h (0 Bft) 0 min 0,0 km/h (0 Bft)
29.10.2009 10:52 16,8 C 11,5 C 0,3 UV-I 0,3 C 67 % 96 % 9 % 1022,1 hPa 0,0 l/m 0,0 km/h (0 Bft) 0 min 0,0 km/h (0 Bft)
29.10.2009 10:54 16,8 C 11,6 C 0,3 UV-I 0,2 C 67 % 96 % 6 % 1022,1 hPa 0,0 l/m 0,0 km/h (0 Bft) 0 min 0,0 km/h (0 Bft)
29.10.2009 10:56 16,8 C 11,6 C 0,5 UV-I 0,3 C 67 % 96 % 9 % 1022,3 hPa 0,0 l/m 0,0 km/h (0 Bft) 0 min 0,0 km/h (0 Bft)
29.10.2009 10:58 16,8 C 11,6 C 0,5 UV-I 0,3 C 67 % 96 % 9 % 1022,3 hPa 0,0 l/m 0,0 km/h (0 Bft) 0 min 0,0 km/h (0 Bft)
29.10.2009 11:00 16,8 C 11,6 C 0,4 UV-I 0,3 C 67 % 96 % 9 % 1022,3 hPa 0,0 l/m 0,0 km/h (0 Bft) 0 min 0,0 km/h (0 Bft)
29.10.2009 11:02 16,8 C 11,6 C 0,4 UV-I 0,4 C 67 % 96 % 11 % 1022,3 hPa 0,0 l/m 0,0 km/h (0 Bft) 0 min 0,0 km/h (0 Bft)
29.10.2009 11:04 16,8 C 11,6 C 0,4 UV-I 0,4 C 67 % 96 % 11 % 1022,3 hPa 0,0 l/m 0,0 km/h (0 Bft) 0 min 0,0 km/h (0 Bft)
29.10.2009 11:06 16,8 C 11,6 C 0,5 UV-I 0,5 C 67 % 96 % 14 % 1022,3 hPa 0,0 l/m 0,2 km/h (0 Bft) 0 min 0,0 km/h (0 Bft)
29.10.2009 11:08 16,8 C 11,7 C 0,5 UV-I 0,5 C 67 % 96 % 14 % 1022,3 hPa 0,0 l/m 0,2 km/h (0 Bft) 0 min 0,0 km/h (0 Bft)
29.10.2009 11:14 16,8 C 11,9 C 0,6 UV-I 0,4 C 67 % 96 % 11 % 1022,3 hPa 0,0 l/m 0,2 km/h (0 Bft) 0 min 0,0 km/h (0 Bft)
29.10.2009 11:16 16,9 C 11,9 C 0,6 UV-I 0,4 C 67 % 96 % 11 % 1022,4 hPa 0,0 l/m 0,0 km/h (0 Bft) 0 min 0,0 km/h (0 Bft)
29.10.2009 11:18 16,9 C 11,8 C 0,6 UV-I 0,6 C 67 % 96 % 17 % 1022,4 hPa 0,0 l/m 0,0 km/h (0 Bft) 0 min 0,0 km/h (0 Bft)
29.10.2009 11:22 16,9 C 11,9 C 0,6 UV-I 0,5 C 67 % 96 % 14 % 1022,4 hPa 0,0 l/m 0,0 km/h (0 Bft) 0 min 0,0 km/h (0 Bft)
29.10.2009 11:24 16,9 C 11,9 C 0,6 UV-I 0,5 C 67 % 96 % 14 % 1022,4 hPa 0,0 l/m 0,0 km/h (0 Bft) 0 min 0,0 km/h (0 Bft)
29.10.2009 11:26 16,9 C 11,9 C 0,4 UV-I 0,5 C 67 % 96 % 14 % 1022,4 hPa 0,0 l/m 0,0 km/h (0 Bft) 0 min 0,0 km/h (0 Bft)
29.10.2009 11:30 16,9 C 12,0 C 0,4 UV-I 0,5 C 67 % 96 % 14 % 1022,4 hPa 0,0 l/m 0,0 km/h (0 Bft) 0 min 0,0 km/h (0 Bft)
29.10.2009 11:34 17,0 C 12,1 C 0,4 UV-I 0,5 C 67 % 96 % 14 % 1022,4 hPa 0,0 l/m 0,0 km/h (0 Bft) 0 min 0,0 km/h (0 Bft)
29.10.2009 11:36 16,9 C 12,0 C 0,4 UV-I 0,7 C 67 % 96 % 20 % 1022,4 hPa 0,0 l/m 0,0 km/h (0 Bft) 0 min 0,0 km/h (0 Bft)
29.10.2009 11:38 17,0 C 12,0 C 0,4 UV-I 0,7 C 67 % 96 % 20 % 1022,4 hPa 0,0 l/m 0,0 km/h (0 Bft) 0 min 0,0 km/h (0 Bft)
29.10.2009 11:40 17,0 C 12,0 C 0,2 UV-I 0,7 C 67 % 96 % 20 % 1022,4 hPa 0,0 l/m 0,0 km/h (0 Bft) 0 min 0,0 km/h (0 Bft)
29.10.2009 11:42 17,0 C 12,1 C 0,2 UV-I 0,6 C 67 % 96 % 17 % 1022,4 hPa 0,0 l/m 0,0 km/h (0 Bft) 0 min 0,0 km/h (0 Bft)
29.10.2009 11:44 17,0 C 12,1 C 0,2 UV-I 0,6 C 67 % 96 % 17 % 1022,4 hPa 0,0 l/m 0,0 km/h (0 Bft) 0 min 0,0 km/h (0 Bft)
29.10.2009 11:46 17,0 C 12,2 C 0,4 UV-I 0,6 C 67 % 96 % 17 % 1022,4 hPa 0,0 l/m 0,0 km/h (0 Bft) 0 min 0,0 km/h (0 Bft)
29.10.2009 11:48 17,0 C 12,2 C 0,4 UV-I 0,6 C 67 % 96 % 17 % 1022,4 hPa 0,0 l/m 0,0 km/h (0 Bft) 0 min 0,0 km/h (0 Bft)
29.10.2009 11:50 17,0 C 12,3 C 0,5 UV-I 0,6 C 67 % 96 % 17 % 1022,4 hPa 0,0 l/m 0,0 km/h (0 Bft) 0 min 0,0 km/h (0 Bft)
29.10.2009 11:52 17,0 C 12,3 C 0,5 UV-I 0,6 C 67 % 96 % 17 % 1022,4 hPa 0,0 l/m 0,0 km/h (0 Bft) 0 min 0,0 km/h (0 Bft)
29.10.2009 11:54 17,0 C 12,3 C 0,5 UV-I 0,6 C 67 % 96 % 17 % 1022,4 hPa 0,0 l/m 0,0 km/h (0 Bft) 0 min 0,0 km/h (0 Bft)
29.10.2009 11:58 17,0 C 12,3 C 0,8 UV-I 0,7 C 67 % 96 % 20 % 1022,9 hPa 0,0 l/m 0,0 km/h (0 Bft) 0 min 0,0 km/h (0 Bft)
29.10.2009 12:02 17,1 C 12,3 C 0,8 UV-I 0,7 C 67 % 96 % 20 % 1022,9 hPa 0,0 l/m 0,0 km/h (0 Bft) 0 min 2,4 km/h (1 Bft)
29.10.2009 12:06 17,1 C 12,3 C 0,8 UV-I 0,8 C 67 % 96 % 23 % 1022,9 hPa 0,0 l/m 0,2 km/h (0 Bft) 0 min 3,1 km/h (1 Bft)
29.10.2009 12:10 17,1 C 12,3 C 0,6 UV-I 0,8 C 67 % 95 % 23 % 1022,9 hPa 0,0 l/m 0,2 km/h (0 Bft) 0 min 0,0 km/h (0 Bft)
29.10.2009 12:12 17,2 C 12,4 C 0,6 UV-I 0,7 C 67 % 95 % 20 % 1022,9 hPa 0,0 l/m 0,2 km/h (0 Bft) 0 min 0,0 km/h (0 Bft)
29.10.2009 12:14 17,2 C 12,5 C 0,6 UV-I 0,7 C 67 % 95 % 20 % 1022,9 hPa 0,0 l/m 0,2 km/h (0 Bft) 0 min 0,0 km/h (0 Bft)
29.10.2009 12:16 17,2 C 12,5 C 0,7 UV-I 0,8 C 67 % 95 % 23 % 1022,7 hPa 0,0 l/m 0,2 km/h (0 Bft) 0 min 0,0 km/h (0 Bft)
29.10.2009 12:18 17,2 C 12,4 C 0,7 UV-I 0,9 C 67 % 95 % 26 % 1022,7 hPa 0,0 l/m 0,0 km/h (0 Bft) 0 min 0,0 km/h (0 Bft)
29.10.2009 12:20 17,2 C 12,4 C 0,6 UV-I 0,9 C 67 % 95 % 26 % 1022,7 hPa 0,0 l/m 0,0 km/h (0 Bft) 0 min 3,1 km/h (1 Bft)
29.10.2009 12:22 17,2 C 12,4 C 0,6 UV-I 0,9 C 67 % 95 % 26 % 1022,7 hPa 0,0 l/m 0,0 km/h (0 Bft) 0 min 0,0 km/h (0 Bft)
29.10.2009 12:24 17,2 C 12,4 C 0,6 UV-I 0,9 C 67 % 95 % 26 % 1022,7 hPa 0,0 l/m 0,0 km/h (0 Bft) 0 min 0,0 km/h (0 Bft)
29.10.2009 12:26 17,2 C 12,5 C 0,6 UV-I 0,8 C 67 % 95 % 23 % 1022,7 hPa 0,0 l/m 0,0 km/h (0 Bft) 0 min 0,0 km/h (0 Bft)
29.10.2009 12:28 17,2 C 12,6 C 0,6 UV-I 0,8 C 67 % 95 % 23 % 1022,7 hPa 0,0 l/m 0,0 km/h (0 Bft) 0 min 0,0 km/h (0 Bft)
29.10.2009 12:30 17,2 C 12,7 C 0,5 UV-I 0,8 C 66 % 95 % 23 % 1022,7 hPa 0,0 l/m 0,0 km/h (0 Bft) 0 min 0,0 km/h (0 Bft)
29.10.2009 12:32 17,2 C 12,7 C 0,5 UV-I 0,8 C 66 % 95 % 23 % 1022,7 hPa 0,0 l/m 0,0 km/h (0 Bft) 0 min 0,0 km/h (0 Bft)
29.10.2009 12:40 17,2 C 12,6 C 0,4 UV-I 0,8 C 66 % 95 % 23 % 1022,8 hPa 0,0 l/m 0,0 km/h (0 Bft) 0 min 0,0 km/h (0 Bft)
29.10.2009 12:42 17,2 C 12,7 C 0,4 UV-I 0,8 C 66 % 95 % 23 % 1022,8 hPa 0,0 l/m 0,0 km/h (0 Bft) 0 min 0,0 km/h (0 Bft)
29.10.2009 12:44 17,4 C 12,8 C 0,4 UV-I 0,7 C 66 % 95 % 20 % 1022,8 hPa 0,0 l/m 0,0 km/h (0 Bft) 0 min 0,0 km/h (0 Bft)
29.10.2009 12:46 17,4 C 12,8 C 0,0 UV-I 0,7 C 66 % 95 % 20 % 1022,8 hPa 0,0 l/m 0,0 km/h (0 Bft) 0 min 0,0 km/h (0 Bft)
29.10.2009 12:54 17,4 C 12,8 C 0,0 UV-I 0,7 C 66 % 95 % 20 % 1022,8 hPa 0,0 l/m 0,0 km/h (0 Bft) 0 min 0,0 km/h (0 Bft)
29.10.2009 12:56 17,4 C 12,8 C 0,5 UV-I 0,7 C 66 % 95 % 20 % 1023,0 hPa 0,0 l/m 0,0 km/h (0 Bft) 0 min 0,0 km/h (0 Bft)
29.10.2009 12:58 17,4 C 12,8 C 0,5 UV-I 0,7 C 66 % 95 % 20 % 1023,0 hPa 0,0 l/m 0,5 km/h (0 Bft) 0 min 3,1 km/h (1 Bft)
29.10.2009 13:00 17,4 C 12,8 C 0,6 UV-I 0,7 C 66 % 94 % 20 % 1023,0 hPa 0,0 l/m 0,7 km/h (0 Bft) 0 min 3,4 km/h (1 Bft)
29.10.2009 13:02 17,4 C 12,8 C 0,6 UV-I 0,7 C 66 % 94 % 20 % 1023,0 hPa 0,0 l/m 1,0 km/h (0 Bft) 0 min 4,3 km/h (1 Bft)
29.10.2009 13:04 17,4 C 12,8 C 0,6 UV-I 0,7 C 66 % 94 % 20 % 1023,0 hPa 0,0 l/m 1,0 km/h (0 Bft) 0 min 0,0 km/h (0 Bft)
29.10.2009 13:06 17,4 C 12,8 C 0,8 UV-I 0,7 C 66 % 94 % 20 % 1023,0 hPa 0,0 l/m 1,0 km/h (0 Bft) 0 min 0,0 km/h (0 Bft)
29.10.2009 13:08 17,4 C 12,9 C 0,8 UV-I 0,7 C 66 % 94 % 20 % 1023,0 hPa 0,0 l/m 0,7 km/h (0 Bft) 0 min 0,0 km/h (0 Bft)
29.10.2009 13:12 17,5 C 12,9 C 0,8 UV-I 0,8 C 66 % 94 % 23 % 1023,0 hPa 0,0 l/m 0,2 km/h (0 Bft) 0 min 2,9 km/h (1 Bft)
29.10.2009 13:14 17,5 C 12,9 C 0,8 UV-I 0,8 C 66 % 94 % 23 % 1023,0 hPa 0,0 l/m 0,2 km/h (0 Bft) 0 min 2,6 km/h (1 Bft)
29.10.2009 13:20 17,5 C 13,0 C 0,7 UV-I 0,8 C 66 % 94 % 23 % 1022,9 hPa 0,0 l/m 0,5 km/h (0 Bft) 0 min 3,4 km/h (1 Bft)
29.10.2009 13:22 17,5 C 13,1 C 0,7 UV-I 0,7 C 65 % 94 % 20 % 1022,9 hPa 0,0 l/m 0,2 km/h (0 Bft) 0 min 0,0 km/h (0 Bft)
29.10.2009 13:24 17,6 C 13,0 C 0,7 UV-I 0,8 C 65 % 94 % 23 % 1022,9 hPa 0,0 l/m 0,2 km/h (0 Bft) 0 min 0,0 km/h (0 Bft)
29.10.2009 13:26 17,6 C 13,1 C 0,5 UV-I 0,7 C 65 % 94 % 20 % 1022,9 hPa 0,0 l/m 0,2 km/h (0 Bft) 0 min 0,0 km/h (0 Bft)
29.10.2009 13:28 17,6 C 13,0 C 0,5 UV-I 0,8 C 65 % 94 % 23 % 1022,9 hPa 0,0 l/m 0,2 km/h (0 Bft) 0 min 0,0 km/h (0 Bft)
29.10.2009 13:34 17,6 C 13,1 C 0,5 UV-I 0,8 C 65 % 93 % 23 % 1022,9 hPa 0,0 l/m 0,0 km/h (0 Bft) 0 min 0,0 km/h (0 Bft)
29.10.2009 13:38 17,6 C 13,1 C 0,4 UV-I 0,8 C 65 % 93 % 23 % 1023,2 hPa 0,0 l/m 0,0 km/h (0 Bft) 0 min 0,0 km/h (0 Bft)
29.10.2009 13:40 17,6 C 13,1 C 0,5 UV-I 0,8 C 65 % 93 % 23 % 1023,2 hPa 0,0 l/m 0,0 km/h (0 Bft) 0 min 0,0 km/h (0 Bft)
29.10.2009 13:42 17,6 C 13,2 C 0,5 UV-I 0,8 C 65 % 93 % 23 % 1023,2 hPa 0,0 l/m 0,0 km/h (0 Bft) 0 min 0,0 km/h (0 Bft)
29.10.2009 13:46 17,6 C 13,2 C 0,5 UV-I 0,9 C 65 % 93 % 26 % 1023,2 hPa 0,0 l/m 0,0 km/h (0 Bft) 0 min 0,0 km/h (0 Bft)
29.10.2009 13:52 17,6 C 13,3 C 0,4 UV-I 0,9 C 65 % 93 % 26 % 1023,2 hPa 0,0 l/m 0,0 km/h (0 Bft) 0 min 0,0 km/h (0 Bft)
29.10.2009 13:56 17,6 C 13,4 C 0,4 UV-I 0,8 C 65 % 94 % 23 % 1023,1 hPa 0,0 l/m 0,0 km/h (0 Bft) 0 min 0,0 km/h (0 Bft)
29.10.2009 13:58 17,6 C 13,5 C 0,4 UV-I 0,7 C 65 % 94 % 20 % 1023,1 hPa 0,0 l/m 0,0 km/h (0 Bft) 0 min 0,0 km/h (0 Bft)
29.10.2009 14:00 17,7 C 13,5 C 0,4 UV-I 0,8 C 65 % 94 % 23 % 1023,1 hPa 0,0 l/m 0,0 km/h (0 Bft) 0 min 0,0 km/h (0 Bft)
29.10.2009 14:02 17,7 C 13,4 C 0,4 UV-I 0,9 C 65 % 93 % 26 % 1023,1 hPa 0,0 l/m 0,0 km/h (0 Bft) 0 min 0,0 km/h (0 Bft)
29.10.2009 14:06 17,7 C 13,4 C 0,4 UV-I 1,0 C 65 % 93 % 29 % 1023,1 hPa 0,0 l/m 0,0 km/h (0 Bft) 0 min 0,0 km/h (0 Bft)
29.10.2009 14:08 17,7 C 13,5 C 0,4 UV-I 0,8 C 65 % 93 % 23 % 1023,1 hPa 0,0 l/m 0,0 km/h (0 Bft) 0 min 0,0 km/h (0 Bft)
29.10.2009 14:12 17,7 C 13,5 C 0,3 UV-I 0,7 C 65 % 93 % 20 % 1023,1 hPa 0,0 l/m 0,0 km/h (0 Bft) 0 min 0,0 km/h (0 Bft)
29.10.2009 14:16 17,7 C 13,5 C 0,6 UV-I 0,7 C 65 % 93 % 20 % 1023,1 hPa 0,0 l/m 0,0 km/h (0 Bft) 0 min 0,0 km/h (0 Bft)
29.10.2009 14:18 17,7 C 13,5 C 0,6 UV-I 0,8 C 65 % 93 % 23 % 1023,1 hPa 0,0 l/m 0,0 km/h (0 Bft) 0 min 0,0 km/h (0 Bft)
29.10.2009 14:20 17,8 C 13,7 C 0,6 UV-I 0,6 C 65 % 93 % 17 % 1023,1 hPa 0,0 l/m 0,0 km/h (0 Bft) 0 min 0,0 km/h (0 Bft)
29.10.2009 14:22 17,8 C 13,7 C 0,6 UV-I 0,6 C 65 % 93 % 17 % 1023,1 hPa 0,0 l/m 0,0 km/h (0 Bft) 0 min 0,0 km/h (0 Bft)
29.10.2009 14:24 17,8 C 13,6 C 0,6 UV-I 0,7 C 65 % 93 % 20 % 1023,1 hPa 0,0 l/m 0,2 km/h (0 Bft) 0 min 0,0 km/h (0 Bft)
29.10.2009 14:26 17,8 C 13,7 C 0,6 UV-I 0,6 C 65 % 93 % 17 % 1023,1 hPa 0,0 l/m 0,2 km/h (0 Bft) 0 min 0,0 km/h (0 Bft)
29.10.2009 14:28 17,8 C 13,6 C 0,6 UV-I 0,6 C 65 % 92 % 17 % 1023,1 hPa 0,0 l/m 0,2 km/h (0 Bft) 0 min 0,0 km/h (0 Bft)
29.10.2009 14:30 17,8 C 13,6 C 0,5 UV-I 0,6 C 65 % 92 % 17 % 1023,1 hPa 0,0 l/m 0,2 km/h (0 Bft) 0 min 0,0 km/h (0 Bft)
29.10.2009 14:32 17,8 C 13,6 C 0,5 UV-I 0,5 C 65 % 92 % 14 % 1023,1 hPa 0,0 l/m 0,2 km/h (0 Bft) 0 min 0,0 km/h (0 Bft)
29.10.2009 14:34 17,7 C 13,7 C 0,5 UV-I 0,4 C 65 % 92 % 11 % 1023,1 hPa 0,0 l/m 0,0 km/h (0 Bft) 0 min 0,0 km/h (0 Bft)
29.10.2009 14:36 17,8 C 13,6 C 0,4 UV-I 0,5 C 65 % 92 % 14 % 1023,4 hPa 0,0 l/m 0,0 km/h (0 Bft) 0 min 0,0 km/h (0 Bft)
29.10.2009 14:38 17,8 C 13,6 C 0,4 UV-I 0,5 C 65 % 92 % 14 % 1023,4 hPa 0,0 l/m 0,0 km/h (0 Bft) 0 min 0,0 km/h (0 Bft)
29.10.2009 14:40 17,8 C 13,6 C 0,2 UV-I 0,5 C 65 % 92 % 14 % 1023,4 hPa 0,0 l/m 0,0 km/h (0 Bft) 0 min 0,0 km/h (0 Bft)
29.10.2009 14:42 17,8 C 13,6 C 0,2 UV-I 0,5 C 65 % 92 % 14 % 1023,4 hPa 0,0 l/m 0,0 km/h (0 Bft) 0 min 0,0 km/h (0 Bft)
29.10.2009 14:44 17,8 C 13,6 C 0,2 UV-I 0,4 C 65 % 92 % 11 % 1023,4 hPa 0,0 l/m 0,0 km/h (0 Bft) 0 min 0,0 km/h (0 Bft)
29.10.2009 14:46 17,8 C 13,6 C 0,0 UV-I 0,3 C 65 % 92 % 9 % 1023,4 hPa 0,0 l/m 0,0 km/h (0 Bft) 0 min 0,0 km/h (0 Bft)
29.10.2009 14:48 17,8 C 13,6 C 0,0 UV-I 0,3 C 65 % 92 % 9 % 1023,4 hPa 0,0 l/m 0,0 km/h (0 Bft) 0 min 0,0 km/h (0 Bft)
29.10.2009 14:50 17,8 C 13,7 C 0,0 UV-I 0,2 C 65 % 92 % 6 % 1023,4 hPa 0,0 l/m 0,0 km/h (0 Bft) 0 min 0,0 km/h (0 Bft)
29.10.2009 14:52 17,8 C 13,7 C 0,0 UV-I 0,2 C 65 % 92 % 6 % 1023,4 hPa 0,0 l/m 0,0 km/h (0 Bft) 0 min 0,0 km/h (0 Bft)
29.10.2009 14:54 17,8 C 13,7 C 0,0 UV-I 0,2 C 65 % 92 % 6 % 1023,4 hPa 0,0 l/m 0,0 km/h (0 Bft) 0 min 0,0 km/h (0 Bft)
29.10.2009 14:56 17,8 C 13,7 C 0,0 UV-I 0,2 C 65 % 92 % 6 % 1023,4 hPa 0,0 l/m 0,0 km/h (0 Bft) 0 min 0,0 km/h (0 Bft)
29.10.2009 14:58 17,8 C 13,7 C 0,0 UV-I 0,2 C 65 % 92 % 6 % 1023,4 hPa 0,0 l/m 0,0 km/h (0 Bft) 0 min 0,0 km/h (0 Bft)
29.10.2009 15:00 17,8 C 13,7 C 0,0 UV-I 0,2 C 65 % 92 % 6 % 1023,4 hPa 0,0 l/m 0,0 km/h (0 Bft) 0 min 0,0 km/h (0 Bft)
29.10.2009 15:02 17,8 C 13,7 C 0,0 UV-I 0,2 C 65 % 91 % 6 % 1023,4 hPa 0,0 l/m 0,0 km/h (0 Bft) 0 min 0,0 km/h (0 Bft)
29.10.2009 15:04 17,8 C 13,6 C 0,0 UV-I 0,3 C 65 % 91 % 9 % 1023,4 hPa 0,0 l/m 0,0 km/h (0 Bft) 0 min 0,0 km/h (0 Bft)
29.10.2009 15:06 17,8 C 13,7 C 0,0 UV-I 0,2 C 65 % 91 % 6 % 1023,4 hPa 0,0 l/m 0,0 km/h (0 Bft) 0 min 0,0 km/h (0 Bft)
29.10.2009 15:08 17,8 C 13,8 C 0,0 UV-I 0,0 C 65 % 91 % 0 % 1023,4 hPa 0,0 l/m 0,0 km/h (0 Bft) 0 min 0,0 km/h (0 Bft)
29.10.2009 15:10 17,8 C 13,7 C 0,0 UV-I 0,1 C 65 % 91 % 3 % 1023,4 hPa 0,0 l/m 0,0 km/h (0 Bft) 0 min 0,0 km/h (0 Bft)
29.10.2009 15:12 17,8 C 13,8 C 0,0 UV-I 0,0 C 65 % 91 % 0 % 1023,4 hPa 0,0 l/m 0,0 km/h (0 Bft) 0 min 0,0 km/h (0 Bft)
29.10.2009 15:14 17,8 C 13,8 C 0,0 UV-I 0,0 C 65 % 91 % 0 % 1023,4 hPa 0,0 l/m 0,0 km/h (0 Bft) 0 min 0,0 km/h (0 Bft)
29.10.2009 15:16 17,8 C 13,8 C 0,0 UV-I 0,0 C 65 % 91 % 0 % 1023,5 hPa 0,0 l/m 0,0 km/h (0 Bft) 0 min 0,0 km/h (0 Bft)
29.10.2009 15:18 17,8 C 13,7 C 0,0 UV-I 0,1 C 65 % 91 % 3 % 1023,5 hPa 0,0 l/m 0,0 km/h (0 Bft) 0 min 0,0 km/h (0 Bft)
29.10.2009 15:20 17,8 C 13,8 C 0,0 UV-I 0,0 C 65 % 91 % 0 % 1023,5 hPa 0,0 l/m 0,0 km/h (0 Bft) 0 min 0,0 km/h (0 Bft)
29.10.2009 15:22 17,8 C 13,8 C 0,0 UV-I 0,0 C 65 % 91 % 0 % 1023,5 hPa 0,0 l/m 0,0 km/h (0 Bft) 0 min 0,0 km/h (0 Bft)
29.10.2009 15:24 17,8 C 13,9 C 0,0 UV-I 0,0 C 65 % 92 % 0 % 1023,5 hPa 0,0 l/m 0,0 km/h (0 Bft) 0 min 0,0 km/h (0 Bft)
29.10.2009 15:28 17,8 C 13,9 C 0,0 UV-I 0,0 C 65 % 92 % 0 % 1023,5 hPa 0,0 l/m 0,0 km/h (0 Bft) 0 min 0,0 km/h (0 Bft)
29.10.2009 15:30 17,8 C 13,9 C 0,0 UV-I 0,0 C 65 % 92 % 0 % 1023,5 hPa 0,0 l/m 0,0 km/h (0 Bft) 0 min 0,0 km/h (0 Bft)
29.10.2009 15:32 17,8 C 13,8 C 0,0 UV-I 0,0 C 65 % 91 % 0 % 1023,5 hPa 0,0 l/m 0,0 km/h (0 Bft) 0 min 0,0 km/h (0 Bft)
29.10.2009 15:34 17,8 C 13,9 C 0,0 UV-I 0,0 C 66 % 92 % 0 % 1023,5 hPa 0,0 l/m 0,0 km/h (0 Bft) 0 min 0,0 km/h (0 Bft)
29.10.2009 15:36 17,8 C 13,8 C 0,0 UV-I 0,0 C 66 % 91 % 0 % 1023,8 hPa 0,0 l/m 0,0 km/h (0 Bft) 0 min 0,0 km/h (0 Bft)
29.10.2009 15:38 17,8 C 13,9 C 0,0 UV-I 0,0 C 66 % 92 % 0 % 1023,8 hPa 0,0 l/m 0,0 km/h (0 Bft) 0 min 0,0 km/h (0 Bft)
29.10.2009 15:40 17,7 C 13,9 C 0,0 UV-I 0,0 C 66 % 92 % 0 % 1023,8 hPa 0,0 l/m 0,0 km/h (0 Bft) 0 min 0,0 km/h (0 Bft)
29.10.2009 15:42 17,7 C 13,9 C 0,0 UV-I 0,0 C 66 % 92 % 0 % 1023,8 hPa 0,0 l/m 0,0 km/h (0 Bft) 0 min 0,0 km/h (0 Bft)
29.10.2009 15:44 17,7 C 13,8 C 0,0 UV-I 0,0 C 66 % 91 % 0 % 1023,8 hPa 0,0 l/m 0,0 km/h (0 Bft) 0 min 0,0 km/h (0 Bft)
29.10.2009 15:46 17,7 C 13,9 C 0,0 UV-I 0,0 C 66 % 92 % 0 % 1023,8 hPa 0,0 l/m 0,0 km/h (0 Bft) 0 min 0,0 km/h (0 Bft)
29.10.2009 15:50 17,7 C 13,8 C 0,0 UV-I 0,0 C 66 % 91 % 0 % 1023,8 hPa 0,0 l/m 0,0 km/h (0 Bft) 0 min 0,0 km/h (0 Bft)
29.10.2009 15:52 17,7 C 13,9 C 0,0 UV-I 0,0 C 66 % 92 % 0 % 1023,8 hPa 0,0 l/m 0,0 km/h (0 Bft) 0 min 0,0 km/h (0 Bft)
29.10.2009 15:54 17,7 C 13,8 C 0,0 UV-I 0,0 C 66 % 91 % 0 % 1023,8 hPa 0,0 l/m 0,0 km/h (0 Bft) 0 min 0,0 km/h (0 Bft)
29.10.2009 15:56 17,7 C 13,8 C 0,0 UV-I 0,0 C 66 % 91 % 0 % 1023,6 hPa 0,0 l/m 0,0 km/h (0 Bft) 0 min 0,0 km/h (0 Bft)
29.10.2009 15:58 17,7 C 13,9 C 0,0 UV-I 0,0 C 66 % 92 % 0 % 1023,6 hPa 0,0 l/m 0,0 km/h (0 Bft) 0 min 0,0 km/h (0 Bft)
29.10.2009 16:00 17,7 C 13,8 C 0,0 UV-I 0,0 C 66 % 91 % 0 % 1023,6 hPa 0,0 l/m 0,0 km/h (0 Bft) 0 min 0,0 km/h (0 Bft)
29.10.2009 16:02 17,7 C 13,8 C 0,0 UV-I 0,0 C 66 % 91 % 0 % 1023,6 hPa 0,0 l/m 0,0 km/h (0 Bft) 0 min 0,0 km/h (0 Bft)
29.10.2009 16:04 17,7 C 13,9 C 0,0 UV-I 0,0 C 66 % 92 % 0 % 1023,6 hPa 0,0 l/m 0,0 km/h (0 Bft) 0 min 0,0 km/h (0 Bft)
29.10.2009 16:06 17,7 C 13,8 C 0,0 UV-I 0,0 C 66 % 91 % 0 % 1023,6 hPa 0,0 l/m 0,0 km/h (0 Bft) 0 min 0,0 km/h (0 Bft)
29.10.2009 16:08 17,7 C 13,8 C 0,0 UV-I 0,0 C 66 % 91 % 0 % 1023,6 hPa 0,0 l/m 0,0 km/h (0 Bft) 0 min 0,0 km/h (0 Bft)
29.10.2009 16:10 17,7 C 13,9 C 0,0 UV-I 0,0 C 66 % 92 % 0 % 1023,6 hPa 0,0 l/m 0,0 km/h (0 Bft) 0 min 0,0 km/h (0 Bft)
29.10.2009 16:12 17,7 C 13,9 C 0,0 UV-I 0,0 C 66 % 92 % 0 % 1023,6 hPa 0,0 l/m 0,0 km/h (0 Bft) 0 min 0,0 km/h (0 Bft)
29.10.2009 16:14 17,6 C 13,9 C 0,0 UV-I 0,0 C 66 % 92 % 0 % 1023,6 hPa 0,0 l/m 0,0 km/h (0 Bft) 0 min 0,0 km/h (0 Bft)
29.10.2009 16:16 17,6 C 13,9 C 0,0 UV-I 0,0 C 66 % 92 % 0 % 1023,2 hPa 0,0 l/m 0,0 km/h (0 Bft) 0 min 0,0 km/h (0 Bft)
29.10.2009 16:18 17,6 C 13,9 C 0,0 UV-I 0,0 C 67 % 92 % 0 % 1023,2 hPa 0,0 l/m 0,0 km/h (0 Bft) 0 min 0,0 km/h (0 Bft)
29.10.2009 16:20 17,6 C 13,9 C 0,0 UV-I 0,0 C 67 % 92 % 0 % 1023,2 hPa 0,0 l/m 0,0 km/h (0 Bft) 0 min 0,0 km/h (0 Bft)
29.10.2009 16:22 17,6 C 13,8 C 0,0 UV-I 0,0 C 67 % 91 % 0 % 1023,2 hPa 0,0 l/m 0,0 km/h (0 Bft) 0 min 0,0 km/h (0 Bft)
29.10.2009 16:24 17,6 C 13,8 C 0,0 UV-I 0,0 C 67 % 91 % 0 % 1023,2 hPa 0,0 l/m 0,0 km/h (0 Bft) 0 min 0,0 km/h (0 Bft)
29.10.2009 16:26 17,6 C 13,7 C 0,0 UV-I 0,0 C 67 % 91 % 0 % 1023,2 hPa 0,0 l/m 0,0 km/h (0 Bft) 0 min 0,0 km/h (0 Bft)
29.10.2009 16:28 17,6 C 13,7 C 0,0 UV-I 0,0 C 67 % 91 % 0 % 1023,2 hPa 0,0 l/m 0,0 km/h (0 Bft) 0 min 0,0 km/h (0 Bft)
29.10.2009 16:30 17,6 C 13,7 C 0,0 UV-I 0,0 C 67 % 91 % 0 % 1023,2 hPa 0,0 l/m 0,2 km/h (0 Bft) 0 min 0,0 km/h (0 Bft)
29.10.2009 16:32 17,6 C 13,7 C 0,0 UV-I 0,0 C 67 % 91 % 0 % 1023,2 hPa 0,0 l/m 0,2 km/h (0 Bft) 0 min 0,0 km/h (0 Bft)
29.10.2009 16:34 17,6 C 13,7 C 0,0 UV-I 0,0 C 67 % 91 % 0 % 1023,2 hPa 0,0 l/m 0,0 km/h (0 Bft) 0 min 0,0 km/h (0 Bft)
29.10.2009 16:36 17,6 C 13,7 C 0,0 UV-I 0,0 C 67 % 91 % 0 % 1023,4 hPa 0,0 l/m 0,0 km/h (0 Bft) 0 min 0,0 km/h (0 Bft)
29.10.2009 16:38 17,6 C 13,7 C 0,0 UV-I 0,0 C 67 % 91 % 0 % 1023,4 hPa 0,0 l/m 0,0 km/h (0 Bft) 0 min 0,0 km/h (0 Bft)
29.10.2009 16:40 17,6 C 13,6 C 0,0 UV-I 0,0 C 67 % 91 % 0 % 1023,4 hPa 0,0 l/m 0,2 km/h (0 Bft) 0 min 3,4 km/h (1 Bft)
29.10.2009 16:42 17,6 C 13,6 C 0,0 UV-I 0,0 C 67 % 91 % 0 % 1023,4 hPa 0,0 l/m 0,2 km/h (0 Bft) 0 min 0,0 km/h (0 Bft)
29.10.2009 16:44 17,6 C 13,6 C 0,0 UV-I 0,0 C 67 % 91 % 0 % 1023,4 hPa 0,0 l/m 0,2 km/h (0 Bft) 0 min 0,0 km/h (0 Bft)
29.10.2009 16:46 17,6 C 13,7 C 0,0 UV-I 0,0 C 67 % 91 % 0 % 1023,4 hPa 0,0 l/m 0,2 km/h (0 Bft) 0 min 0,0 km/h (0 Bft)
29.10.2009 16:48 17,6 C 13,7 C 0,0 UV-I 0,0 C 67 % 91 % 0 % 1023,4 hPa 0,0 l/m 0,2 km/h (0 Bft) 0 min 0,0 km/h (0 Bft)
29.10.2009 16:50 17,6 C 13,6 C 0,0 UV-I 0,0 C 67 % 91 % 0 % 1023,4 hPa 0,0 l/m 0,2 km/h (0 Bft) 0 min 0,0 km/h (0 Bft)
29.10.2009 16:52 17,6 C 13,6 C 0,0 UV-I 0,0 C 67 % 91 % 0 % 1023,4 hPa 0,0 l/m 0,0 km/h (0 Bft) 0 min 0,0 km/h (0 Bft)
29.10.2009 16:54 17,6 C 13,6 C 0,0 UV-I 0,0 C 67 % 91 % 0 % 1023,4 hPa 0,0 l/m 0,0 km/h (0 Bft) 0 min 0,0 km/h (0 Bft)
29.10.2009 16:56 17,6 C 13,5 C 0,0 UV-I 0,0 C 67 % 91 % 0 % 1023,5 hPa 0,0 l/m 0,0 km/h (0 Bft) 0 min 0,0 km/h (0 Bft)
29.10.2009 16:58 17,6 C 13,5 C 0,0 UV-I 0,0 C 67 % 91 % 0 % 1023,5 hPa 0,0 l/m 0,0 km/h (0 Bft) 0 min 0,0 km/h (0 Bft)
29.10.2009 17:02 17,5 C 13,5 C 0,0 UV-I 0,0 C 67 % 91 % 0 % 1023,5 hPa 0,0 l/m 0,0 km/h (0 Bft) 0 min 0,0 km/h (0 Bft)
29.10.2009 17:04 17,5 C 13,5 C 0,0 UV-I 0,0 C 67 % 91 % 0 % 1023,5 hPa 0,0 l/m 0,0 km/h (0 Bft) 0 min 0,0 km/h (0 Bft)
29.10.2009 17:06 17,5 C 13,5 C 0,0 UV-I 0,0 C 67 % 91 % 0 % 1023,5 hPa 0,0 l/m 0,0 km/h (0 Bft) 0 min 0,0 km/h (0 Bft)
29.10.2009 17:08 17,6 C 13,5 C 0,0 UV-I 0,0 C 67 % 91 % 0 % 1023,5 hPa 0,0 l/m 0,0 km/h (0 Bft) 0 min 0,0 km/h (0 Bft)
29.10.2009 17:10 17,6 C 13,5 C 0,0 UV-I 0,0 C 67 % 91 % 0 % 1023,5 hPa 0,0 l/m 0,0 km/h (0 Bft) 0 min 0,0 km/h (0 Bft)
29.10.2009 17:12 17,5 C 13,5 C 0,0 UV-I 0,0 C 67 % 91 % 0 % 1023,5 hPa 0,0 l/m 0,0 km/h (0 Bft) 0 min 0,0 km/h (0 Bft)
29.10.2009 17:14 17,5 C 13,4 C 0,0 UV-I 0,0 C 67 % 91 % 0 % 1023,5 hPa 0,0 l/m 0,0 km/h (0 Bft) 0 min 0,0 km/h (0 Bft)
29.10.2009 17:16 17,5 C 13,4 C 0,0 UV-I 0,0 C 67 % 91 % 0 % 1023,8 hPa 0,0 l/m 0,0 km/h (0 Bft) 0 min 0,0 km/h (0 Bft)
29.10.2009 17:18 17,5 C 13,4 C 0,0 UV-I 0,0 C 67 % 91 % 0 % 1023,8 hPa 0,0 l/m 0,0 km/h (0 Bft) 0 min 0,0 km/h (0 Bft)
29.10.2009 17:20 17,5 C 13,3 C 0,0 UV-I 0,0 C 67 % 91 % 0 % 1023,8 hPa 0,0 l/m 0,0 km/h (0 Bft) 0 min 0,0 km/h (0 Bft)
29.10.2009 17:22 17,5 C 13,3 C 0,0 UV-I 0,0 C 67 % 91 % 0 % 1023,8 hPa 0,0 l/m 0,0 km/h (0 Bft) 0 min 0,0 km/h (0 Bft)
29.10.2009 17:24 17,5 C 13,2 C 0,0 UV-I 0,0 C 67 % 91 % 0 % 1023,8 hPa 0,0 l/m 0,0 km/h (0 Bft) 0 min 0,0 km/h (0 Bft)
29.10.2009 17:26 17,5 C 13,2 C 0,0 UV-I 0,0 C 67 % 91 % 0 % 1023,8 hPa 0,0 l/m 0,0 km/h (0 Bft) 0 min 0,0 km/h (0 Bft)
29.10.2009 17:28 17,5 C 13,2 C 0,0 UV-I 0,0 C 67 % 91 % 0 % 1023,8 hPa 0,0 l/m 0,0 km/h (0 Bft) 0 min 0,0 km/h (0 Bft)
29.10.2009 17:30 17,5 C 13,2 C 0,0 UV-I 0,0 C 67 % 91 % 0 % 1023,8 hPa 0,0 l/m 0,0 km/h (0 Bft) 0 min 0,0 km/h (0 Bft)
29.10.2009 17:32 17,5 C 13,2 C 0,0 UV-I 0,0 C 67 % 91 % 0 % 1023,8 hPa 0,0 l/m 0,0 km/h (0 Bft) 0 min 0,0 km/h (0 Bft)
29.10.2009 17:34 17,5 C 13,2 C 0,0 UV-I 0,0 C 67 % 91 % 0 % 1023,8 hPa 0,0 l/m 0,0 km/h (0 Bft) 0 min 0,0 km/h (0 Bft)
29.10.2009 17:36 17,5 C 13,2 C 0,0 UV-I 0,0 C 67 % 91 % 0 % 1023,8 hPa 0,0 l/m 0,2 km/h (0 Bft) 0 min 3,8 km/h (1 Bft)
29.10.2009 17:40 17,5 C 13,1 C 0,0 UV-I 0,0 C 67 % 92 % 0 % 1023,8 hPa 0,0 l/m 0,7 km/h (0 Bft) 0 min 0,0 km/h (0 Bft)
29.10.2009 17:42 17,5 C 13,1 C 0,0 UV-I 0,0 C 68 % 92 % 0 % 1023,8 hPa 0,0 l/m 0,7 km/h (0 Bft) 0 min 0,0 km/h (0 Bft)
29.10.2009 17:44 17,5 C 13,1 C 0,0 UV-I 0,0 C 67 % 92 % 0 % 1023,8 hPa 0,0 l/m 0,7 km/h (0 Bft) 0 min 0,0 km/h (0 Bft)
29.10.2009 17:46 17,5 C 13,0 C 0,0 UV-I 0,0 C 68 % 92 % 0 % 1023,8 hPa 0,0 l/m 0,7 km/h (0 Bft) 0 min 0,0 km/h (0 Bft)
29.10.2009 17:48 17,5 C 13,0 C 0,0 UV-I 0,0 C 68 % 92 % 0 % 1023,8 hPa 0,0 l/m 0,2 km/h (0 Bft) 0 min 0,0 km/h (0 Bft)
29.10.2009 17:50 17,5 C 13,1 C 0,0 UV-I 0,0 C 68 % 92 % 0 % 1023,8 hPa 0,0 l/m 0,0 km/h (0 Bft) 0 min 0,0 km/h (0 Bft)
29.10.2009 17:52 17,5 C 13,1 C 0,0 UV-I 0,0 C 68 % 92 % 0 % 1023,8 hPa 0,0 l/m 0,0 km/h (0 Bft) 0 min 0,0 km/h (0 Bft)
29.10.2009 17:54 17,5 C 13,1 C 0,0 UV-I 0,0 C 68 % 92 % 0 % 1023,8 hPa 0,0 l/m 0,0 km/h (0 Bft) 0 min 0,0 km/h (0 Bft)
29.10.2009 17:58 17,5 C 13,1 C 0,0 UV-I 0,0 C 68 % 92 % 0 % 1024,1 hPa 0,0 l/m 0,0 km/h (0 Bft) 0 min 0,0 km/h (0 Bft)
29.10.2009 18:00 17,5 C 13,1 C 0,0 UV-I 0,0 C 68 % 92 % 0 % 1024,1 hPa 0,0 l/m 0,0 km/h (0 Bft) 0 min 0,0 km/h (0 Bft)
29.10.2009 18:02 17,5 C 13,0 C 0,0 UV-I 0,0 C 68 % 92 % 0 % 1024,1 hPa 0,0 l/m 0,0 km/h (0 Bft) 0 min 0,0 km/h (0 Bft)
29.10.2009 18:04 17,5 C 12,9 C 0,0 UV-I 0,0 C 68 % 92 % 0 % 1024,1 hPa 0,0 l/m 0,0 km/h (0 Bft) 0 min 0,0 km/h (0 Bft)
29.10.2009 18:06 17,5 C 12,9 C 0,0 UV-I 0,0 C 68 % 92 % 0 % 1024,1 hPa 0,0 l/m 0,0 km/h (0 Bft) 0 min 0,0 km/h (0 Bft)
29.10.2009 18:08 17,5 C 12,9 C 0,0 UV-I 0,0 C 68 % 92 % 0 % 1024,1 hPa 0,0 l/m 0,0 km/h (0 Bft) 0 min 0,0 km/h (0 Bft)
29.10.2009 18:10 17,5 C 12,9 C 0,0 UV-I 0,0 C 68 % 92 % 0 % 1024,1 hPa 0,0 l/m 0,0 km/h (0 Bft) 0 min 0,0 km/h (0 Bft)
29.10.2009 18:12 17,5 C 12,9 C 0,0 UV-I 0,0 C 68 % 92 % 0 % 1024,1 hPa 0,0 l/m 0,0 km/h (0 Bft) 0 min 0,0 km/h (0 Bft)
29.10.2009 18:14 17,5 C 12,9 C 0,0 UV-I 0,0 C 68 % 92 % 0 % 1024,1 hPa 0,0 l/m 0,0 km/h (0 Bft) 0 min 0,0 km/h (0 Bft)
29.10.2009 18:16 17,5 C 12,9 C 0,0 UV-I 0,0 C 68 % 92 % 0 % 1024,4 hPa 0,0 l/m 0,0 km/h (0 Bft) 0 min 0,0 km/h (0 Bft)
29.10.2009 18:20 17,5 C 12,8 C 0,0 UV-I 0,0 C 68 % 92 % 0 % 1024,4 hPa 0,0 l/m 0,0 km/h (0 Bft) 0 min 0,0 km/h (0 Bft)
29.10.2009 18:22 17,5 C 12,9 C 0,0 UV-I 0,0 C 68 % 92 % 0 % 1024,4 hPa 0,0 l/m 0,0 km/h (0 Bft) 0 min 0,0 km/h (0 Bft)
29.10.2009 18:24 17,5 C 12,9 C 0,0 UV-I 0,0 C 68 % 92 % 0 % 1024,4 hPa 0,0 l/m 0,0 km/h (0 Bft) 0 min 0,0 km/h (0 Bft)
29.10.2009 18:26 17,5 C 12,8 C 0,0 UV-I 0,0 C 68 % 92 % 0 % 1024,4 hPa 0,0 l/m 0,0 km/h (0 Bft) 0 min 0,0 km/h (0 Bft)
29.10.2009 18:28 17,5 C 12,8 C 0,0 UV-I 0,0 C 68 % 92 % 0 % 1024,4 hPa 0,0 l/m 0,0 km/h (0 Bft) 0 min 0,0 km/h (0 Bft)
29.10.2009 18:30 17,5 C 12,8 C 0,0 UV-I 0,0 C 68 % 92 % 0 % 1024,4 hPa 0,0 l/m 0,0 km/h (0 Bft) 0 min 0,0 km/h (0 Bft)
29.10.2009 18:32 17,5 C 12,8 C 0,0 UV-I 0,0 C 68 % 92 % 0 % 1024,4 hPa 0,0 l/m 0,0 km/h (0 Bft) 0 min 0,0 km/h (0 Bft)
29.10.2009 18:36 17,4 C 12,9 C 0,0 UV-I 0,0 C 68 % 92 % 0 % 1024,5 hPa 0,0 l/m 0,0 km/h (0 Bft) 0 min 0,0 km/h (0 Bft)
29.10.2009 18:38 17,5 C 12,9 C 0,0 UV-I 0,0 C 68 % 93 % 0 % 1024,5 hPa 0,0 l/m 0,0 km/h (0 Bft) 0 min 0,0 km/h (0 Bft)
29.10.2009 18:40 17,4 C 12,9 C 0,0 UV-I 0,0 C 68 % 92 % 0 % 1024,5 hPa 0,0 l/m 0,0 km/h (0 Bft) 0 min 0,0 km/h (0 Bft)
29.10.2009 18:42 17,4 C 12,9 C 0,0 UV-I 0,0 C 68 % 93 % 0 % 1024,5 hPa 0,0 l/m 0,0 km/h (0 Bft) 0 min 0,0 km/h (0 Bft)
29.10.2009 18:44 17,4 C 12,9 C 0,0 UV-I 0,0 C 68 % 93 % 0 % 1024,5 hPa 0,0 l/m 0,0 km/h (0 Bft) 0 min 0,0 km/h (0 Bft)
29.10.2009 18:46 17,4 C 12,8 C 0,0 UV-I 0,0 C 68 % 93 % 0 % 1024,5 hPa 0,0 l/m 0,0 km/h (0 Bft) 0 min 0,0 km/h (0 Bft)
29.10.2009 18:48 17,4 C 12,8 C 0,0 UV-I 0,0 C 68 % 93 % 0 % 1024,5 hPa 0,0 l/m 0,0 km/h (0 Bft) 0 min 0,0 km/h (0 Bft)
29.10.2009 18:50 17,4 C 12,8 C 0,0 UV-I 0,0 C 68 % 93 % 0 % 1024,5 hPa 0,0 l/m 0,0 km/h (0 Bft) 0 min 0,0 km/h (0 Bft)
29.10.2009 18:52 17,4 C 12,8 C 0,0 UV-I 0,0 C 68 % 93 % 0 % 1024,5 hPa 0,0 l/m 0,0 km/h (0 Bft) 0 min 0,0 km/h (0 Bft)
29.10.2009 18:54 17,4 C 12,8 C 0,0 UV-I 0,0 C 68 % 93 % 0 % 1024,5 hPa 0,0 l/m 0,0 km/h (0 Bft) 0 min 0,0 km/h (0 Bft)
29.10.2009 18:56 17,4 C 12,8 C 0,0 UV-I 0,0 C 68 % 93 % 0 % 1024,6 hPa 0,0 l/m 0,0 km/h (0 Bft) 0 min 0,0 km/h (0 Bft)
29.10.2009 18:58 17,4 C 12,8 C 0,0 UV-I 0,0 C 68 % 93 % 0 % 1024,6 hPa 0,0 l/m 0,0 km/h (0 Bft) 0 min 0,0 km/h (0 Bft)
29.10.2009 19:00 17,4 C 12,8 C 0,0 UV-I 0,0 C 68 % 93 % 0 % 1024,6 hPa 0,0 l/m 0,0 km/h (0 Bft) 0 min 0,0 km/h (0 Bft)
29.10.2009 19:02 17,4 C 12,8 C 0,0 UV-I 0,0 C 68 % 93 % 0 % 1024,6 hPa 0,0 l/m 0,0 km/h (0 Bft) 0 min 0,0 km/h (0 Bft)
29.10.2009 19:04 17,4 C 12,8 C 0,0 UV-I 0,0 C 68 % 93 % 0 % 1024,6 hPa 0,0 l/m 0,0 km/h (0 Bft) 0 min 0,0 km/h (0 Bft)
29.10.2009 19:06 17,4 C 12,7 C 0,0 UV-I 0,0 C 68 % 93 % 0 % 1024,6 hPa 0,0 l/m 0,0 km/h (0 Bft) 0 min 0,0 km/h (0 Bft)
29.10.2009 19:08 17,4 C 12,7 C 0,0 UV-I 0,0 C 68 % 93 % 0 % 1024,6 hPa 0,0 l/m 0,0 km/h (0 Bft) 0 min 0,0 km/h (0 Bft)
29.10.2009 19:10 17,4 C 12,7 C 0,0 UV-I 0,0 C 68 % 93 % 0 % 1024,6 hPa 0,0 l/m 0,0 km/h (0 Bft) 0 min 0,0 km/h (0 Bft)
29.10.2009 19:14 17,4 C 12,7 C 0,0 UV-I 0,0 C 68 % 93 % 0 % 1024,6 hPa 0,0 l/m 0,0 km/h (0 Bft) 0 min 0,0 km/h (0 Bft)
29.10.2009 19:16 17,4 C 12,7 C 0,0 UV-I 0,0 C 68 % 93 % 0 % 1024,9 hPa 0,0 l/m 0,0 km/h (0 Bft) 0 min 0,0 km/h (0 Bft)
29.10.2009 19:18 17,4 C 12,7 C 0,0 UV-I 0,0 C 68 % 93 % 0 % 1024,9 hPa 0,0 l/m 0,0 km/h (0 Bft) 0 min 0,0 km/h (0 Bft)
29.10.2009 19:20 17,4 C 12,7 C 0,0 UV-I 0,0 C 68 % 93 % 0 % 1024,9 hPa 0,0 l/m 0,0 km/h (0 Bft) 0 min 0,0 km/h (0 Bft)
29.10.2009 19:22 17,4 C 12,7 C 0,0 UV-I 0,0 C 68 % 93 % 0 % 1024,9 hPa 0,0 l/m 0,0 km/h (0 Bft) 0 min 0,0 km/h (0 Bft)
29.10.2009 19:24 17,4 C 12,7 C 0,0 UV-I 0,0 C 68 % 93 % 0 % 1024,9 hPa 0,0 l/m 0,0 km/h (0 Bft) 0 min 0,0 km/h (0 Bft)
29.10.2009 19:26 17,4 C 12,7 C 0,0 UV-I 0,0 C 68 % 93 % 0 % 1024,9 hPa 0,0 l/m 0,0 km/h (0 Bft) 0 min 0,0 km/h (0 Bft)
29.10.2009 19:28 17,4 C 12,7 C 0,0 UV-I 0,0 C 68 % 93 % 0 % 1024,9 hPa 0,0 l/m 0,0 km/h (0 Bft) 0 min 0,0 km/h (0 Bft)
29.10.2009 19:30 17,4 C 12,6 C 0,0 UV-I 0,0 C 68 % 93 % 0 % 1024,9 hPa 0,0 l/m 0,0 km/h (0 Bft) 0 min 0,0 km/h (0 Bft)
29.10.2009 19:32 17,4 C 12,7 C 0,0 UV-I 0,0 C 68 % 93 % 0 % 1024,9 hPa 0,0 l/m 0,0 km/h (0 Bft) 0 min 0,0 km/h (0 Bft)
29.10.2009 19:34 17,4 C 12,6 C 0,0 UV-I 0,0 C 68 % 93 % 0 % 1024,9 hPa 0,0 l/m 0,0 km/h (0 Bft) 0 min 0,0 km/h (0 Bft)
29.10.2009 19:36 17,4 C 12,6 C 0,0 UV-I 0,0 C 68 % 93 % 0 % 1024,7 hPa 0,0 l/m 0,0 km/h (0 Bft) 0 min 0,0 km/h (0 Bft)
29.10.2009 19:38 17,4 C 12,7 C 0,0 UV-I 0,0 C 68 % 93 % 0 % 1024,7 hPa 0,0 l/m 0,0 km/h (0 Bft) 0 min 0,0 km/h (0 Bft)
29.10.2009 19:40 17,4 C 12,7 C 0,0 UV-I 0,0 C 68 % 93 % 0 % 1024,7 hPa 0,0 l/m 0,0 km/h (0 Bft) 0 min 0,0 km/h (0 Bft)
29.10.2009 19:42 17,4 C 12,7 C 0,0 UV-I 0,0 C 68 % 93 % 0 % 1024,7 hPa 0,0 l/m 0,0 km/h (0 Bft) 0 min 0,0 km/h (0 Bft)
29.10.2009 19:44 17,4 C 12,7 C 0,0 UV-I 0,0 C 68 % 93 % 0 % 1024,7 hPa 0,0 l/m 0,0 km/h (0 Bft) 0 min 0,0 km/h (0 Bft)
29.10.2009 19:46 17,4 C 12,7 C 0,0 UV-I 0,0 C 68 % 93 % 0 % 1024,7 hPa 0,0 l/m 0,0 km/h (0 Bft) 0 min 0,0 km/h (0 Bft)
29.10.2009 19:48 17,4 C 12,6 C 0,0 UV-I 0,0 C 68 % 93 % 0 % 1024,7 hPa 0,0 l/m 0,0 km/h (0 Bft) 0 min 0,0 km/h (0 Bft)
29.10.2009 19:50 17,4 C 12,6 C 0,0 UV-I 0,0 C 68 % 93 % 0 % 1024,7 hPa 0,0 l/m 0,0 km/h (0 Bft) 0 min 0,0 km/h (0 Bft)
29.10.2009 19:52 17,4 C 12,5 C 0,0 UV-I 0,0 C 68 % 93 % 0 % 1024,7 hPa 0,0 l/m 0,0 km/h (0 Bft) 0 min 0,0 km/h (0 Bft)
29.10.2009 19:54 17,4 C 12,5 C 0,0 UV-I 0,0 C 68 % 93 % 0 % 1024,7 hPa 0,0 l/m 0,0 km/h (0 Bft) 0 min 0,0 km/h (0 Bft)
29.10.2009 19:58 17,4 C 12,5 C 0,0 UV-I 0,0 C 68 % 93 % 0 % 1025,1 hPa 0,0 l/m 0,0 km/h (0 Bft) 0 min 0,0 km/h (0 Bft)
29.10.2009 20:00 17,4 C 12,5 C 0,0 UV-I 0,0 C 68 % 93 % 0 % 1025,1 hPa 0,0 l/m 0,0 km/h (0 Bft) 0 min 0,0 km/h (0 Bft)
29.10.2009 20:02 17,4 C 12,5 C 0,0 UV-I 0,0 C 68 % 93 % 0 % 1025,1 hPa 0,0 l/m 0,0 km/h (0 Bft) 0 min 0,0 km/h (0 Bft)
29.10.2009 20:04 17,4 C 12,4 C 0,0 UV-I 0,0 C 68 % 93 % 0 % 1025,1 hPa 0,0 l/m 0,0 km/h (0 Bft) 0 min 0,0 km/h (0 Bft)
29.10.2009 20:06 17,4 C 12,4 C 0,0 UV-I 0,0 C 68 % 93 % 0 % 1025,1 hPa 0,0 l/m 0,0 km/h (0 Bft) 0 min 0,0 km/h (0 Bft)
29.10.2009 20:08 17,4 C 12,4 C 0,0 UV-I 0,0 C 68 % 93 % 0 % 1025,1 hPa 0,0 l/m 0,0 km/h (0 Bft) 0 min 0,0 km/h (0 Bft)
29.10.2009 20:12 17,4 C 12,5 C 0,0 UV-I 0,0 C 68 % 93 % 0 % 1025,1 hPa 0,0 l/m 0,0 km/h (0 Bft) 0 min 0,0 km/h (0 Bft)
29.10.2009 20:16 17,4 C 12,4 C 0,0 UV-I 0,0 C 68 % 93 % 0 % 1024,9 hPa 0,0 l/m 0,0 km/h (0 Bft) 0 min 0,0 km/h (0 Bft)
29.10.2009 20:18 17,4 C 12,4 C 0,0 UV-I 0,0 C 68 % 93 % 0 % 1024,9 hPa 0,0 l/m 0,0 km/h (0 Bft) 0 min 0,0 km/h (0 Bft)
29.10.2009 20:20 17,4 C 12,4 C 0,0 UV-I 0,0 C 68 % 93 % 0 % 1024,9 hPa 0,0 l/m 0,0 km/h (0 Bft) 0 min 0,0 km/h (0 Bft)
29.10.2009 20:22 17,4 C 12,3 C 0,0 UV-I 0,0 C 68 % 93 % 0 % 1024,9 hPa 0,0 l/m 0,0 km/h (0 Bft) 0 min 0,0 km/h (0 Bft)
29.10.2009 20:24 17,4 C 12,3 C 0,0 UV-I 0,0 C 68 % 93 % 0 % 1024,9 hPa 0,0 l/m 0,0 km/h (0 Bft) 0 min 0,0 km/h (0 Bft)
29.10.2009 20:26 17,4 C 12,3 C 0,0 UV-I 0,0 C 68 % 93 % 0 % 1024,9 hPa 0,0 l/m 0,0 km/h (0 Bft) 0 min 0,0 km/h (0 Bft)
29.10.2009 20:28 17,4 C 12,3 C 0,0 UV-I 0,0 C 68 % 93 % 0 % 1024,9 hPa 0,0 l/m 0,0 km/h (0 Bft) 0 min 0,0 km/h (0 Bft)
29.10.2009 20:30 17,4 C 12,3 C 0,0 UV-I 0,0 C 68 % 93 % 0 % 1024,9 hPa 0,0 l/m 0,0 km/h (0 Bft) 0 min 0,0 km/h (0 Bft)
29.10.2009 20:32 17,4 C 12,3 C 0,0 UV-I 0,0 C 68 % 93 % 0 % 1024,9 hPa 0,0 l/m 0,0 km/h (0 Bft) 0 min 0,0 km/h (0 Bft)
29.10.2009 20:34 17,4 C 12,3 C 0,0 UV-I 0,0 C 68 % 93 % 0 % 1024,9 hPa 0,0 l/m 0,0 km/h (0 Bft) 0 min 0,0 km/h (0 Bft)
29.10.2009 20:36 17,2 C 12,3 C 0,0 UV-I 0,0 C 68 % 93 % 0 % 1025,2 hPa 0,0 l/m 0,0 km/h (0 Bft) 0 min 0,0 km/h (0 Bft)
29.10.2009 20:38 17,2 C 12,2 C 0,0 UV-I 0,0 C 68 % 93 % 0 % 1025,2 hPa 0,0 l/m 0,0 km/h (0 Bft) 0 min 0,0 km/h (0 Bft)
29.10.2009 20:40 17,4 C 12,3 C 0,0 UV-I 0,0 C 68 % 93 % 0 % 1025,2 hPa 0,0 l/m 0,0 km/h (0 Bft) 0 min 0,0 km/h (0 Bft)
29.10.2009 20:42 17,4 C 12,3 C 0,0 UV-I 0,0 C 68 % 93 % 0 % 1025,2 hPa 0,0 l/m 0,0 km/h (0 Bft) 0 min 0,0 km/h (0 Bft)
29.10.2009 20:44 17,2 C 12,3 C 0,0 UV-I 0,0 C 68 % 93 % 0 % 1025,2 hPa 0,0 l/m 0,0 km/h (0 Bft) 0 min 0,0 km/h (0 Bft)
29.10.2009 20:46 17,2 C 12,3 C 0,0 UV-I 0,0 C 68 % 93 % 0 % 1025,2 hPa 0,0 l/m 0,0 km/h (0 Bft) 0 min 0,0 km/h (0 Bft)
29.10.2009 20:52 17,2 C 12,2 C 0,0 UV-I 0,0 C 68 % 93 % 0 % 1025,2 hPa 0,0 l/m 0,0 km/h (0 Bft) 0 min 0,0 km/h (0 Bft)
29.10.2009 20:56 17,2 C 12,1 C 0,0 UV-I 0,0 C 68 % 93 % 0 % 1025,4 hPa 0,0 l/m 0,0 km/h (0 Bft) 0 min 0,0 km/h (0 Bft)
29.10.2009 20:58 17,2 C 12,1 C 0,0 UV-I 0,0 C 68 % 93 % 0 % 1025,4 hPa 0,0 l/m 0,0 km/h (0 Bft) 0 min 0,0 km/h (0 Bft)
29.10.2009 21:00 17,2 C 12,1 C 0,0 UV-I 0,0 C 68 % 93 % 0 % 1025,4 hPa 0,0 l/m 0,0 km/h (0 Bft) 0 min 0,0 km/h (0 Bft)
29.10.2009 21:04 17,2 C 12,1 C 0,0 UV-I 0,0 C 68 % 93 % 0 % 1025,4 hPa 0,0 l/m 0,0 km/h (0 Bft) 0 min 0,0 km/h (0 Bft)
29.10.2009 21:06 17,2 C 12,1 C 0,0 UV-I 0,0 C 68 % 93 % 0 % 1025,4 hPa 0,0 l/m 0,0 km/h (0 Bft) 0 min 0,0 km/h (0 Bft)
29.10.2009 21:08 17,2 C 12,1 C 0,0 UV-I 0,0 C 68 % 93 % 0 % 1025,4 hPa 0,0 l/m 0,0 km/h (0 Bft) 0 min 0,0 km/h (0 Bft)
29.10.2009 21:10 17,2 C 12,0 C 0,0 UV-I 0,0 C 68 % 93 % 0 % 1025,4 hPa 0,0 l/m 0,0 km/h (0 Bft) 0 min 0,0 km/h (0 Bft)
29.10.2009 21:14 17,2 C 12,0 C 0,0 UV-I 0,0 C 68 % 93 % 0 % 1025,4 hPa 0,0 l/m 0,0 km/h (0 Bft) 0 min 0,0 km/h (0 Bft)
29.10.2009 21:16 17,2 C 12,1 C 0,0 UV-I 0,0 C 68 % 93 % 0 % 1025,6 hPa 0,0 l/m 0,0 km/h (0 Bft) 0 min 0,0 km/h (0 Bft)
29.10.2009 21:18 17,2 C 12,0 C 0,0 UV-I 0,0 C 68 % 93 % 0 % 1025,6 hPa 0,0 l/m 0,0 km/h (0 Bft) 0 min 0,0 km/h (0 Bft)
29.10.2009 21:20 17,2 C 12,1 C 0,0 UV-I 0,0 C 68 % 93 % 0 % 1025,6 hPa 0,0 l/m 0,0 km/h (0 Bft) 0 min 0,0 km/h (0 Bft)
29.10.2009 21:22 17,2 C 12,0 C 0,0 UV-I 0,0 C 68 % 93 % 0 % 1025,6 hPa 0,0 l/m 0,0 km/h (0 Bft) 0 min 0,0 km/h (0 Bft)
29.10.2009 21:24 17,2 C 12,0 C 0,0 UV-I 0,0 C 68 % 93 % 0 % 1025,6 hPa 0,0 l/m 0,0 km/h (0 Bft) 0 min 0,0 km/h (0 Bft)
29.10.2009 21:26 17,2 C 12,1 C 0,0 UV-I 0,0 C 68 % 93 % 0 % 1025,6 hPa 0,0 l/m 0,0 km/h (0 Bft) 0 min 0,0 km/h (0 Bft)
29.10.2009 21:28 17,2 C 12,1 C 0,0 UV-I 0,0 C 68 % 94 % 0 % 1025,6 hPa 0,0 l/m 0,0 km/h (0 Bft) 0 min 0,0 km/h (0 Bft)
29.10.2009 21:32 17,2 C 12,0 C 0,0 UV-I 0,0 C 68 % 93 % 0 % 1025,6 hPa 0,0 l/m 0,0 km/h (0 Bft) 0 min 0,0 km/h (0 Bft)
29.10.2009 21:34 17,2 C 12,0 C 0,0 UV-I 0,0 C 68 % 93 % 0 % 1025,6 hPa 0,0 l/m 0,0 km/h (0 Bft) 0 min 0,0 km/h (0 Bft)
29.10.2009 21:36 17,2 C 12,0 C 0,0 UV-I 0,0 C 68 % 93 % 0 % 1025,4 hPa 0,0 l/m 0,0 km/h (0 Bft) 0 min 0,0 km/h (0 Bft)
29.10.2009 21:38 17,2 C 12,0 C 0,0 UV-I 0,0 C 68 % 93 % 0 % 1025,4 hPa 0,0 l/m 0,0 km/h (0 Bft) 0 min 0,0 km/h (0 Bft)
29.10.2009 21:40 17,2 C 12,0 C 0,0 UV-I 0,0 C 68 % 93 % 0 % 1025,4 hPa 0,0 l/m 0,0 km/h (0 Bft) 0 min 0,0 km/h (0 Bft)
29.10.2009 21:42 17,3 C 12,0 C 0,0 UV-I 0,0 C 68 % 93 % 0 % 1025,4 hPa 0,0 l/m 0,0 km/h (0 Bft) 0 min 0,0 km/h (0 Bft)
29.10.2009 21:46 17,3 C 11,9 C 0,0 UV-I 0,0 C 68 % 93 % 0 % 1025,4 hPa 0,0 l/m 0,0 km/h (0 Bft) 0 min 0,0 km/h (0 Bft)
29.10.2009 21:48 17,3 C 11,9 C 0,0 UV-I 0,0 C 68 % 93 % 0 % 1025,4 hPa 0,0 l/m 0,0 km/h (0 Bft) 0 min 0,0 km/h (0 Bft)
29.10.2009 21:50 17,3 C 11,9 C 0,0 UV-I 0,0 C 68 % 93 % 0 % 1025,4 hPa 0,0 l/m 0,0 km/h (0 Bft) 0 min 0,0 km/h (0 Bft)
29.10.2009 21:52 17,3 C 11,9 C 0,0 UV-I 0,0 C 68 % 93 % 0 % 1025,4 hPa 0,0 l/m 0,0 km/h (0 Bft) 0 min 0,0 km/h (0 Bft)
29.10.2009 21:54 17,2 C 11,9 C 0,0 UV-I 0,0 C 68 % 93 % 0 % 1025,4 hPa 0,0 l/m 0,0 km/h (0 Bft) 0 min 0,0 km/h (0 Bft)
29.10.2009 21:56 17,3 C 11,8 C 0,0 UV-I 0,0 C 68 % 93 % 0 % 1025,5 hPa 0,0 l/m 0,0 km/h (0 Bft) 0 min 0,0 km/h (0 Bft)
29.10.2009 21:58 17,2 C 11,8 C 0,0 UV-I 0,0 C 68 % 94 % 0 % 1025,5 hPa 0,0 l/m 0,0 km/h (0 Bft) 0 min 0,0 km/h (0 Bft)
29.10.2009 22:02 17,3 C 11,8 C 0,0 UV-I 0,0 C 68 % 94 % 0 % 1025,5 hPa 0,0 l/m 0,0 km/h (0 Bft) 0 min 0,0 km/h (0 Bft)
29.10.2009 22:04 17,3 C 11,9 C 0,0 UV-I 0,0 C 68 % 94 % 0 % 1025,5 hPa 0,0 l/m 0,0 km/h (0 Bft) 0 min 0,0 km/h (0 Bft)
29.10.2009 22:06 17,2 C 11,9 C 0,0 UV-I 0,0 C 68 % 94 % 0 % 1025,5 hPa 0,0 l/m 0,0 km/h (0 Bft) 0 min 0,0 km/h (0 Bft)
29.10.2009 22:08 17,3 C 11,9 C 0,0 UV-I 0,0 C 68 % 94 % 0 % 1025,5 hPa 0,0 l/m 0,0 km/h (0 Bft) 0 min 0,0 km/h (0 Bft)
29.10.2009 22:10 17,2 C 11,9 C 0,0 UV-I 0,0 C 68 % 94 % 0 % 1025,5 hPa 0,0 l/m 0,0 km/h (0 Bft) 0 min 0,0 km/h (0 Bft)
29.10.2009 22:14 17,2 C 11,9 C 0,0 UV-I 0,0 C 68 % 94 % 0 % 1025,5 hPa 0,0 l/m 0,0 km/h (0 Bft) 0 min 0,0 km/h (0 Bft)
29.10.2009 22:16 17,2 C 11,9 C 0,0 UV-I 0,0 C 68 % 94 % 0 % 1025,4 hPa 0,0 l/m 0,0 km/h (0 Bft) 0 min 0,0 km/h (0 Bft)
29.10.2009 22:18 17,2 C 11,8 C 0,0 UV-I 0,0 C 68 % 94 % 0 % 1025,4 hPa 0,0 l/m 0,0 km/h (0 Bft) 0 min 0,0 km/h (0 Bft)
29.10.2009 22:22 17,2 C 11,7 C 0,0 UV-I 0,0 C 68 % 94 % 0 % 1025,4 hPa 0,0 l/m 0,0 km/h (0 Bft) 0 min 0,0 km/h (0 Bft)
29.10.2009 22:24 17,2 C 11,8 C 0,0 UV-I 0,0 C 68 % 94 % 0 % 1025,4 hPa 0,0 l/m 0,0 km/h (0 Bft) 0 min 0,0 km/h (0 Bft)
29.10.2009 22:26 17,2 C 11,8 C 0,0 UV-I 0,0 C 68 % 94 % 0 % 1025,4 hPa 0,0 l/m 0,0 km/h (0 Bft) 0 min 0,0 km/h (0 Bft)
29.10.2009 22:28 17,2 C 11,7 C 0,0 UV-I 0,0 C 68 % 94 % 0 % 1025,4 hPa 0,0 l/m 0,0 km/h (0 Bft) 0 min 0,0 km/h (0 Bft)
29.10.2009 22:30 17,2 C 11,7 C 0,0 UV-I 0,0 C 68 % 94 % 0 % 1025,4 hPa 0,0 l/m 0,0 km/h (0 Bft) 0 min 0,0 km/h (0 Bft)
29.10.2009 22:34 17,2 C 11,7 C 0,0 UV-I 0,0 C 68 % 94 % 0 % 1025,4 hPa 0,0 l/m 0,0 km/h (0 Bft) 0 min 0,0 km/h (0 Bft)
29.10.2009 22:38 17,3 C 11,7 C 0,0 UV-I 0,0 C 68 % 94 % 0 % 1025,7 hPa 0,0 l/m 0,0 km/h (0 Bft) 0 min 0,0 km/h (0 Bft)
29.10.2009 22:40 17,2 C 11,7 C 0,0 UV-I 0,0 C 68 % 94 % 0 % 1025,7 hPa 0,0 l/m 0,0 km/h (0 Bft) 0 min 0,0 km/h (0 Bft)
29.10.2009 22:42 17,3 C 11,7 C 0,0 UV-I 0,0 C 68 % 94 % 0 % 1025,7 hPa 0,0 l/m 0,0 km/h (0 Bft) 0 min 0,0 km/h (0 Bft)
29.10.2009 22:44 17,2 C 11,6 C 0,0 UV-I 0,0 C 68 % 94 % 0 % 1025,7 hPa 0,0 l/m 0,0 km/h (0 Bft) 0 min 0,0 km/h (0 Bft)
29.10.2009 22:48 17,2 C 11,6 C 0,0 UV-I 0,0 C 68 % 94 % 0 % 1025,7 hPa 0,0 l/m 0,0 km/h (0 Bft) 0 min 0,0 km/h (0 Bft)
29.10.2009 22:56 17,4 C 11,6 C 0,0 UV-I 0,0 C 68 % 94 % 0 % 1025,5 hPa 0,0 l/m 0,0 km/h (0 Bft) 0 min 0,0 km/h (0 Bft)
29.10.2009 22:58 17,4 C 11,6 C 0,0 UV-I 0,0 C 68 % 94 % 0 % 1025,5 hPa 0,0 l/m 0,0 km/h (0 Bft) 0 min 0,0 km/h (0 Bft)
29.10.2009 23:00 17,4 C 11,6 C 0,0 UV-I 0,0 C 68 % 94 % 0 % 1025,5 hPa 0,0 l/m 0,0 km/h (0 Bft) 0 min 0,0 km/h (0 Bft)
29.10.2009 23:02 17,4 C 11,6 C 0,0 UV-I 0,0 C 68 % 94 % 0 % 1025,5 hPa 0,0 l/m 0,0 km/h (0 Bft) 0 min 0,0 km/h (0 Bft)
29.10.2009 23:04 17,2 C 11,6 C 0,0 UV-I 0,0 C 68 % 94 % 0 % 1025,5 hPa 0,0 l/m 0,0 km/h (0 Bft) 0 min 0,0 km/h (0 Bft)
29.10.2009 23:06 17,4 C 11,5 C 0,0 UV-I 0,0 C 67 % 94 % 0 % 1025,5 hPa 0,0 l/m 0,0 km/h (0 Bft) 0 min 0,0 km/h (0 Bft)
29.10.2009 23:08 17,4 C 11,5 C 0,0 UV-I 0,0 C 67 % 94 % 0 % 1025,5 hPa 0,0 l/m 0,0 km/h (0 Bft) 0 min 0,0 km/h (0 Bft)
29.10.2009 23:10 17,4 C 11,5 C 0,0 UV-I 0,0 C 67 % 94 % 0 % 1025,5 hPa 0,0 l/m 0,0 km/h (0 Bft) 0 min 0,0 km/h (0 Bft)
29.10.2009 23:12 17,4 C 11,5 C 0,0 UV-I 0,0 C 67 % 94 % 0 % 1025,5 hPa 0,0 l/m 0,0 km/h (0 Bft) 0 min 0,0 km/h (0 Bft)
29.10.2009 23:14 17,4 C 11,5 C 0,0 UV-I 0,0 C 67 % 94 % 0 % 1025,5 hPa 0,0 l/m 0,0 km/h (0 Bft) 0 min 0,0 km/h (0 Bft)
29.10.2009 23:16 17,2 C 11,5 C 0,0 UV-I 0,0 C 67 % 94 % 0 % 1025,4 hPa 0,0 l/m 0,0 km/h (0 Bft) 0 min 0,0 km/h (0 Bft)
29.10.2009 23:18 17,2 C 11,5 C 0,0 UV-I 0,0 C 67 % 94 % 0 % 1025,4 hPa 0,0 l/m 0,0 km/h (0 Bft) 0 min 0,0 km/h (0 Bft)
29.10.2009 23:20 17,4 C 11,5 C 0,0 UV-I 0,0 C 67 % 94 % 0 % 1025,4 hPa 0,0 l/m 0,0 km/h (0 Bft) 0 min 0,0 km/h (0 Bft)
29.10.2009 23:22 17,4 C 11,5 C 0,0 UV-I 0,0 C 67 % 94 % 0 % 1025,4 hPa 0,0 l/m 0,0 km/h (0 Bft) 0 min 0,0 km/h (0 Bft)
29.10.2009 23:24 17,4 C 11,5 C 0,0 UV-I 0,0 C 67 % 94 % 0 % 1025,4 hPa 0,0 l/m 0,0 km/h (0 Bft) 0 min 0,0 km/h (0 Bft)
29.10.2009 23:26 17,2 C 11,5 C 0,0 UV-I 0,0 C 67 % 94 % 0 % 1025,4 hPa 0,0 l/m 0,0 km/h (0 Bft) 0 min 0,0 km/h (0 Bft)
29.10.2009 23:28 17,4 C 11,3 C 0,0 UV-I 0,0 C 67 % 94 % 0 % 1025,4 hPa 0,0 l/m 0,0 km/h (0 Bft) 0 min 0,0 km/h (0 Bft)
29.10.2009 23:30 17,2 C 11,3 C 0,0 UV-I 0,0 C 67 % 94 % 0 % 1025,4 hPa 0,0 l/m 0,0 km/h (0 Bft) 0 min 0,0 km/h (0 Bft)
29.10.2009 23:32 17,2 C 11,3 C 0,0 UV-I 0,0 C 67 % 94 % 0 % 1025,4 hPa 0,0 l/m 0,0 km/h (0 Bft) 0 min 0,0 km/h (0 Bft)
29.10.2009 23:34 17,2 C 11,2 C 0,0 UV-I 0,0 C 67 % 94 % 0 % 1025,4 hPa 0,0 l/m 0,0 km/h (0 Bft) 0 min 0,0 km/h (0 Bft)
29.10.2009 23:36 17,2 C 11,2 C 0,0 UV-I 0,0 C 67 % 94 % 0 % 1025,3 hPa 0,0 l/m 0,0 km/h (0 Bft) 0 min 0,0 km/h (0 Bft)
29.10.2009 23:38 17,2 C 11,2 C 0,0 UV-I 0,0 C 67 % 94 % 0 % 1025,3 hPa 0,0 l/m 0,0 km/h (0 Bft) 0 min 0,0 km/h (0 Bft)
29.10.2009 23:40 17,2 C 11,2 C 0,0 UV-I 0,0 C 67 % 94 % 0 % 1025,3 hPa 0,0 l/m 0,0 km/h (0 Bft) 0 min 0,0 km/h (0 Bft)
29.10.2009 23:42 17,2 C 11,1 C 0,0 UV-I 0,0 C 67 % 94 % 0 % 1025,3 hPa 0,0 l/m 0,0 km/h (0 Bft) 0 min 0,0 km/h (0 Bft)
29.10.2009 23:44 17,2 C 11,1 C 0,0 UV-I 0,0 C 67 % 94 % 0 % 1025,3 hPa 0,0 l/m 0,0 km/h (0 Bft) 0 min 0,0 km/h (0 Bft)
29.10.2009 23:46 17,2 C 11,0 C 0,0 UV-I 0,0 C 67 % 94 % 0 % 1025,3 hPa 0,0 l/m 0,0 km/h (0 Bft) 0 min 0,0 km/h (0 Bft)
29.10.2009 23:48 17,2 C 11,1 C 0,0 UV-I 0,0 C 67 % 94 % 0 % 1025,3 hPa 0,0 l/m 0,0 km/h (0 Bft) 0 min 0,0 km/h (0 Bft)
29.10.2009 23:50 17,2 C 11,0 C 0,0 UV-I 0,0 C 67 % 94 % 0 % 1025,3 hPa 0,0 l/m 0,0 km/h (0 Bft) 0 min 0,0 km/h (0 Bft)
29.10.2009 23:52 17,3 C 10,9 C 0,0 UV-I 0,0 C 67 % 94 % 0 % 1025,3 hPa 0,0 l/m 0,0 km/h (0 Bft) 0 min 0,0 km/h (0 Bft)
29.10.2009 23:54 17,3 C 10,9 C 0,0 UV-I 0,0 C 67 % 94 % 0 % 1025,3 hPa 0,0 l/m 0,0 km/h (0 Bft) 0 min 0,0 km/h (0 Bft)
29.10.2009 23:56 17,3 C 10,8 C 0,0 UV-I 0,0 C 67 % 94 % 0 % 1025,6 hPa 0,0 l/m 0,0 km/h (0 Bft) 0 min 0,0 km/h (0 Bft)
29.10.2009 23:58 17,2 C 10,9 C 0,0 UV-I 0,0 C 66 % 94 % 0 % 1025,6 hPa 0,0 l/m 0,0 km/h (0 Bft) 0 min 0,0 km/h (0 Bft)
_ Min-Zeit 00:36 00:16 00:00 00:00 00:00 15:02 00:00 00:00 - 00:00 - 00:00
Minimum _ 15,6 C 6,0 C 0,0 UV-I 0,0 C 58 % 91 % 0 % 1018,6 hPa - 0,0 km/h (0 Bft) - 0,0 km/h (0 Bft)
_ Max-Zeit 14:20 15:24 11:58 01:16 17:42 08:54 14:06 22:38 07:42 13:02 00:00 13:02
Maximum _ 17,8 C 13,9 C 0,8 UV-I 1,0 C 68 % 96 % 29 % 1025,7 hPa 0,2 l/m 1,0 km/h
S (0 Bft)
0 min 4,3 km/h
S (1 Bft)
Durchschnitt _ 16,9 C 11,2 C 0,1 UV-I 0,2 C 65 % 94 % 3 % 1022,4 hPa #0,2 l/m 0,0 km/h (0 Bft) #0 min. 0,1 km/h (0 Bft)
© 2012 W. Hausmann